| time (UTC) | temp C | wind direction | speed KPH | gust KPH | rain 1hr cm | rain 24hr cm | rain mn cm | humidity % | barometer mb |
| 20260507145403 | 23 | 55 | 4.8 | 8.0 | 0.00 | 0.00 | 0.00 | 86 | 1020.6 |
| 20260507145306 | 23 | 10 | 4.8 | 9.7 | 0.00 | 0.00 | 0.00 | 86 | 1020.5 |
| 20260507145102 | 23 | 44 | 3.2 | 12.9 | 0.00 | 0.00 | 0.00 | 86 | 1020.5 |
| 20260507144801 | 23 | 355 | 3.2 | 12.9 | 0.00 | 0.00 | 0.00 | 86 | 1020.5 |
| 20260507144701 | 23 | 20 | 4.8 | 12.9 | 0.00 | 0.00 | 0.00 | 86 | 1020.5 |
| 20260507144601 | 23 | 5 | 3.2 | 12.9 | 0.00 | 0.00 | 0.00 | 86 | 1020.5 |
| 20260507144502 | 23 | 348 | 4.8 | 12.9 | 0.00 | 0.00 | 0.00 | 86 | 1020.5 |
| 20260507144401 | 23 | 24 | 8.0 | 12.9 | 0.00 | 0.00 | 0.00 | 85 | 1020.6 |
| 20260507144302 | 23 | 15 | 11.3 | 12.9 | 0.00 | 0.00 | 0.00 | 85 | 1020.5 |
| 20260507144201 | 23 | 348 | 4.8 | 8.0 | 0.00 | 0.00 | 0.00 | 85 | 1020.5 |
| 20260507144101 | 23 | 15 | 4.8 | 8.0 | 0.00 | 0.00 | 0.00 | 85 | 1020.5 |
| 20260507144001 | 23 | 5 | 3.2 | 6.4 | 0.00 | 0.00 | 0.00 | 85 | 1020.5 |
| 20260507143901 | 23 | 24 | 4.8 | 6.4 | 0.00 | 0.00 | 0.00 | 85 | 1020.4 |
| 20260507143801 | 23 | 26 | 6.4 | 8.0 | 0.00 | 0.00 | 0.00 | 85 | 1020.5 |
| 20260507143703 | 23 | 36 | 3.2 | 8.0 | 0.00 | 0.00 | 0.00 | 85 | 1020.5 |
| 20260507143602 | 23 | 36 | 3.2 | 8.0 | 0.00 | 0.00 | 0.00 | 85 | 1020.5 |
| 20260507143502 | 23 | 36 | 1.6 | 8.0 | 0.00 | 0.00 | 0.00 | 85 | 1020.5 |
| 20260507143401 | 23 | 36 | 1.6 | 8.0 | 0.00 | 0.00 | 0.00 | 85 | 1020.5 |
| 20260507143301 | 23 | 36 | 3.2 | 9.7 | 0.00 | 0.00 | 0.00 | 85 | 1020.4 |
| 20260507143106 | 23 | 5 | 4.8 | 9.7 | 0.00 | 0.00 | 0.00 | 85 | 1020.5 |
| 20260507143001 | 23 | 355 | 6.4 | 9.7 | 0.00 | 0.00 | 0.00 | 85 | 1020.5 |
| 20260507142902 | 23 | 15 | 3.2 | 9.7 | 0.00 | 0.00 | 0.00 | 85 | 1020.5 |
| 20260507142803 | 23 | 11 | 6.4 | 12.9 | 0.00 | 0.00 | 0.00 | 85 | 1020.5 |
| 20260507142701 | 23 | 46 | 1.6 | 12.9 | 0.00 | 0.00 | 0.00 | 85 | 1020.4 |
| 20260507142601 | 23 | 5 | 3.2 | 12.9 | 0.00 | 0.00 | 0.00 | 85 | 1020.4 |
| 20260507142502 | 23 | 336 | 6.4 | 12.9 | 0.00 | 0.00 | 0.00 | 85 | 1020.5 |
| 20260507142402 | 23 | 355 | 4.8 | 12.9 | 0.00 | 0.00 | 0.00 | 85 | 1020.5 |
| 20260507142301 | 23 | 11 | 4.8 | 12.9 | 0.00 | 0.00 | 0.00 | 85 | 1020.4 |
| 20260507142202 | 23 | 355 | 4.8 | 12.9 | 0.00 | 0.00 | 0.00 | 85 | 1020.4 |
| 20260507142101 | 23 | 24 | 4.8 | 14.5 | 0.00 | 0.00 | 0.00 | 85 | 1020.5 |
| 20260507142002 | 23 | 360 | 9.7 | 14.5 | 0.00 | 0.00 | 0.00 | 85 | 1020.4 |
| 20260507141902 | 23 | 338 | 4.8 | 14.5 | 0.00 | 0.00 | 0.00 | 85 | 1020.5 |
| 20260507141801 | 23 | 317 | 3.2 | 14.5 | 0.00 | 0.00 | 0.00 | 85 | 1020.5 |
| 20260507141701 | 23 | 347 | 6.4 | 14.5 | 0.00 | 0.00 | 0.00 | 85 | 1020.4 |
| 20260507141503 | 23 | 5 | 3.2 | 14.5 | 0.00 | 0.00 | 0.00 | 85 | 1020.4 |
| 20260507141401 | 23 | 5 | 4.8 | 14.5 | 0.00 | 0.00 | 0.00 | 85 | 1020.5 |
| 20260507141309 | 23 | 341 | 9.7 | 14.5 | 0.00 | 0.00 | 0.00 | 85 | 1020.5 |
| 20260507141103 | 23 | 355 | 6.4 | 14.5 | 0.00 | 0.00 | 0.00 | 85 | 1020.4 |
| 20260507141002 | 23 | 5 | 9.7 | 12.9 | 0.00 | 0.00 | 0.00 | 85 | 1020.5 |
| 20260507140900 | 23 | 11 | 6.4 | 14.5 | 0.00 | 0.00 | 0.00 | 85 | 1020.5 |
| 20260507140702 | 23 | 346 | 8.0 | 14.5 | 0.00 | 0.00 | 0.00 | 85 | 1020.4 |
| 20260507140602 | 23 | 319 | 9.7 | 14.5 | 0.00 | 0.00 | 0.00 | 85 | 1020.4 |
| 20260507140403 | 23 | 329 | 9.7 | 14.5 | 0.00 | 0.00 | 0.00 | 85 | 1020.4 |
| 20260507140302 | 23 | 9 | 4.8 | 14.5 | 0.00 | 0.00 | 0.00 | 85 | 1020.5 |
| 20260507140201 | 23 | 327 | 6.4 | 14.5 | 0.00 | 0.00 | 0.00 | 85 | 1020.5 |
| 20260507140001 | 23 | 317 | 4.8 | 12.9 | 0.00 | 0.00 | 0.00 | 85 | 1020.4 |
| 20260507135903 | 23 | 20 | 3.2 | 12.9 | 0.00 | 0.00 | 0.00 | 85 | 1020.4 |
| 20260507135801 | 23 | 355 | 6.4 | 12.9 | 0.00 | 0.00 | 0.00 | 85 | 1020.5 |
| 20260507135701 | 23 | 340 | 6.4 | 12.9 | 0.00 | 0.00 | 0.00 | 85 | 1020.5 |
| 20260507135603 | 23 | 360 | 6.4 | 12.9 | 0.00 | 0.00 | 0.00 | 85 | 1020.4 |
| 20260507135502 | 23 | 329 | 6.4 | 12.9 | 0.00 | 0.00 | 0.00 | 85 | 1020.4 |
| 20260507135402 | 23 | 360 | 3.2 | 12.9 | 0.00 | 0.00 | 0.00 | 85 | 1020.4 |
| 20260507135203 | 23 | 9 | 11.3 | 14.5 | 0.00 | 0.00 | 0.00 | 85 | 1020.3 |
| 20260507135102 | 23 | 344 | 4.8 | 14.5 | 0.00 | 0.00 | 0.00 | 85 | 1020.4 |
| 20260507135002 | 23 | 360 | 8.0 | 14.5 | 0.00 | 0.00 | 0.00 | 85 | 1020.4 |
| 20260507134903 | 23 | 336 | 8.0 | 14.5 | 0.00 | 0.00 | 0.00 | 85 | 1020.4 |
| 20260507134801 | 23 | 5 | 8.0 | 14.5 | 0.00 | 0.00 | 0.00 | 85 | 1020.4 |
| 20260507134703 | 23 | 355 | 12.9 | 14.5 | 0.00 | 0.00 | 0.00 | 85 | 1020.3 |
| 20260507134602 | 23 | 355 | 9.7 | 14.5 | 0.00 | 0.00 | 0.00 | 85 | 1020.4 |
| 20260507134502 | 23 | 344 | 6.4 | 14.5 | 0.00 | 0.00 | 0.00 | 85 | 1020.4 |
| 20260507134402 | 23 | 17 | 8.0 | 12.9 | 0.00 | 0.00 | 0.00 | 85 | 1020.4 |
| 20260507134302 | 23 | 11 | 8.0 | 12.9 | 0.00 | 0.00 | 0.00 | 85 | 1020.3 |
| 20260507134202 | 23 | 346 | 4.8 | 16.1 | 0.00 | 0.00 | 0.00 | 85 | 1020.4 |
| 20260507134101 | 23 | 338 | 8.0 | 16.1 | 0.00 | 0.00 | 0.00 | 85 | 1020.4 |
| 20260507134007 | 23 | 347 | 8.0 | 16.1 | 0.00 | 0.00 | 0.00 | 85 | 1020.3 |
| 20260507133902 | 23 | 360 | 8.0 | 16.1 | 0.00 | 0.00 | 0.00 | 85 | 1020.4 |
| 20260507133802 | 23 | 5 | 6.4 | 16.1 | 0.00 | 0.00 | 0.00 | 85 | 1020.4 |
| 20260507133701 | 23 | 25 | 3.2 | 16.1 | 0.00 | 0.00 | 0.00 | 85 | 1020.3 |
| 20260507133602 | 23 | 360 | 9.7 | 16.1 | 0.00 | 0.00 | 0.00 | 85 | 1020.3 |
| 20260507133503 | 23 | 13 | 6.4 | 16.1 | 0.00 | 0.00 | 0.00 | 85 | 1020.3 |
| 20260507133400 | 23 | 350 | 9.7 | 16.1 | 0.00 | 0.00 | 0.00 | 85 | 1020.2 |
| 20260507133301 | 23 | 19 | 11.3 | 16.1 | 0.00 | 0.00 | 0.00 | 85 | 1020.3 |
| 20260507133203 | 23 | 360 | 14.5 | 16.1 | 0.00 | 0.00 | 0.00 | 85 | 1020.3 |
| 20260507133101 | 23 | 338 | 9.7 | 14.5 | 0.00 | 0.00 | 0.00 | 85 | 1020.3 |
| 20260507132802 | 23 | 355 | 6.4 | 14.5 | 0.00 | 0.00 | 0.00 | 85 | 1020.2 |
| 20260507132701 | 23 | 13 | 6.4 | 16.1 | 0.00 | 0.00 | 0.00 | 85 | 1020.4 |
| 20260507132501 | 23 | 325 | 6.4 | 16.1 | 0.00 | 0.00 | 0.00 | 85 | 1020.4 |
| 20260507132403 | 23 | 9 | 11.3 | 16.1 | 0.00 | 0.00 | 0.00 | 85 | 1020.4 |
| 20260507132306 | 23 | 5 | 12.9 | 16.1 | 0.00 | 0.00 | 0.00 | 85 | 1020.3 |
| 20260507132203 | 23 | 15 | 8.0 | 16.1 | 0.00 | 0.00 | 0.00 | 85 | 1020.3 |
| 20260507132103 | 23 | 40 | 8.0 | 16.1 | 0.00 | 0.00 | 0.00 | 85 | 1020.3 |
| 20260507132003 | 23 | 344 | 6.4 | 16.1 | 0.00 | 0.00 | 0.00 | 85 | 1020.4 |
| 20260507131905 | 23 | 32 | 8.0 | 16.1 | 0.00 | 0.00 | 0.00 | 85 | 1020.3 |
| 20260507131802 | 23 | 24 | 9.7 | 16.1 | 0.00 | 0.00 | 0.00 | 85 | 1020.3 |
| 20260507131701 | 23 | 13 | 4.8 | 16.1 | 0.00 | 0.00 | 0.00 | 86 | 1020.3 |
| 20260507131604 | 23 | 34 | 8.0 | 16.1 | 0.00 | 0.00 | 0.00 | 86 | 1020.3 |
| 20260507131502 | 23 | 10 | 6.4 | 16.1 | 0.00 | 0.00 | 0.00 | 86 | 1020.2 |
| 20260507131302 | 23 | 25 | 6.4 | 16.1 | 0.00 | 0.00 | 0.00 | 85 | 1020.3 |
| 20260507131201 | 23 | 360 | 8.0 | 16.1 | 0.00 | 0.00 | 0.00 | 86 | 1020.3 |
| 20260507131102 | 23 | 355 | 12.9 | 16.1 | 0.00 | 0.00 | 0.00 | 86 | 1020.3 |
| 20260507131002 | 23 | 32 | 8.0 | 16.1 | 0.00 | 0.00 | 0.00 | 86 | 1020.3 |
| 20260507130901 | 23 | 355 | 14.5 | 14.5 | 0.00 | 0.00 | 0.00 | 86 | 1020.4 |
| 20260507130801 | 23 | 32 | 6.4 | 14.5 | 0.00 | 0.00 | 0.00 | 86 | 1020.4 |
| 20260507130701 | 23 | 355 | 12.9 | 14.5 | 0.00 | 0.00 | 0.00 | 86 | 1020.4 |
| 20260507130502 | 23 | 11 | 6.4 | 14.5 | 0.00 | 0.00 | 0.00 | 86 | 1020.4 |
| 20260507130403 | 23 | 355 | 6.4 | 14.5 | 0.00 | 0.00 | 0.00 | 86 | 1020.3 |
| 20260507130303 | 23 | 347 | 9.7 | 14.5 | 0.00 | 0.00 | 0.00 | 86 | 1020.4 |
| 20260507130003 | 23 | 360 | 8.0 | 14.5 | 0.00 | 0.00 | 0.00 | 86 | 1020.4 |
| 20260507125902 | 23 | 5 | 8.0 | 14.5 | 0.00 | 0.00 | 0.00 | 86 | 1020.4 |
| 20260507125804 | 23 | 329 | 1.6 | 16.1 | 0.00 | 0.00 | 0.00 | 86 | 1020.4 |
| 20260507125702 | 23 | 48 | 3.2 | 16.1 | 0.00 | 0.00 | 0.00 | 86 | 1020.4 |
| 20260507125601 | 23 | 11 | 11.3 | 16.1 | 0.00 | 0.00 | 0.00 | 86 | 1020.4 |
| 20260507125503 | 23 | 360 | 14.5 | 16.1 | 0.00 | 0.00 | 0.00 | 86 | 1020.5 |
| 20260507125401 | 23 | 9 | 3.2 | 16.1 | 0.00 | 0.00 | 0.00 | 86 | 1020.4 |
| 20260507125306 | 23 | 22 | 8.0 | 16.1 | 0.00 | 0.00 | 0.00 | 86 | 1020.4 |
| 20260507125202 | 23 | 355 | 6.4 | 16.1 | 0.00 | 0.00 | 0.00 | 86 | 1020.4 |
| 20260507125101 | 23 | 5 | 8.0 | 16.1 | 0.00 | 0.00 | 0.00 | 86 | 1020.4 |
| 20260507125003 | 23 | 10 | 11.3 | 16.1 | 0.00 | 0.00 | 0.00 | 86 | 1020.4 |
| 20260507124901 | 23 | 11 | 4.8 | 12.9 | 0.00 | 0.00 | 0.00 | 86 | 1020.4 |
| 20260507124801 | 23 | 35 | 6.4 | 12.9 | 0.00 | 0.00 | 0.00 | 86 | 1020.5 |
| 20260507124702 | 23 | 337 | 9.7 | 12.9 | 0.00 | 0.00 | 0.00 | 86 | 1020.4 |
| 20260507124601 | 23 | 5 | 9.7 | 14.5 | 0.00 | 0.00 | 0.00 | 86 | 1020.4 |
| 20260507124401 | 23 | 360 | 6.4 | 14.5 | 0.00 | 0.00 | 0.00 | 86 | 1020.5 |
| 20260507124301 | 23 | 22 | 4.8 | 14.5 | 0.00 | 0.00 | 0.00 | 86 | 1020.5 |
| 20260507124103 | 23 | 351 | 6.4 | 14.5 | 0.00 | 0.00 | 0.00 | 85 | 1020.5 |
| 20260507124003 | 23 | 5 | 6.4 | 19.3 | 0.00 | 0.00 | 0.00 | 85 | 1020.5 |
| 20260507123901 | 23 | 13 | 6.4 | 19.3 | 0.00 | 0.00 | 0.00 | 85 | 1020.5 |
| 20260507123802 | 23 | 35 | 4.8 | 19.3 | 0.00 | 0.00 | 0.00 | 85 | 1020.4 |
| 20260507123702 | 23 | 360 | 4.8 | 19.3 | 0.00 | 0.00 | 0.00 | 85 | 1020.5 |
| 20260507123602 | 23 | 51 | 4.8 | 19.3 | 0.00 | 0.00 | 0.00 | 85 | 1020.6 |
| 20260507123401 | 23 | 323 | 8.0 | 19.3 | 0.00 | 0.00 | 0.00 | 86 | 1020.5 |
| 20260507123300 | 23 | 355 | 8.0 | 19.3 | 0.00 | 0.00 | 0.00 | 86 | 1020.5 |
| 20260507123200 | 23 | 329 | 9.7 | 19.3 | 0.00 | 0.00 | 0.00 | 86 | 1020.5 |
| 20260507123101 | 23 | 309 | 19.3 | 19.3 | 0.00 | 0.00 | 0.00 | 86 | 1020.5 |
| 20260507123003 | 23 | 339 | 9.7 | 16.1 | 0.00 | 0.00 | 0.00 | 86 | 1020.6 |
| 20260507122901 | 23 | 355 | 4.8 | 16.1 | 0.00 | 0.00 | 0.00 | 86 | 1020.5 |
| 20260507122802 | 23 | 315 | 9.7 | 16.1 | 0.00 | 0.00 | 0.00 | 86 | 1020.5 |
| 20260507122707 | 23 | 337 | 9.7 | 16.1 | 0.00 | 0.00 | 0.00 | 86 | 1020.5 |
| 20260507122604 | 23 | 348 | 4.8 | 16.1 | 0.00 | 0.00 | 0.00 | 86 | 1020.5 |
| 20260507122402 | 23 | 339 | 6.4 | 16.1 | 0.00 | 0.00 | 0.00 | 86 | 1020.6 |
| 20260507122202 | 23 | 10 | 12.9 | 16.1 | 0.00 | 0.00 | 0.00 | 86 | 1020.6 |
| 20260507122102 | 23 | 347 | 9.7 | 17.7 | 0.00 | 0.00 | 0.00 | 86 | 1020.7 |
| 20260507122001 | 23 | 355 | 8.0 | 17.7 | 0.00 | 0.00 | 0.00 | 86 | 1020.7 |
| 20260507121700 | 23 | 22 | 14.5 | 17.7 | 0.00 | 0.00 | 0.00 | 86 | 1020.7 |
| 20260507121502 | 23 | 9 | 6.4 | 17.7 | 0.00 | 0.00 | 0.00 | 86 | 1020.7 |
| 20260507121402 | 23 | 5 | 3.2 | 17.7 | 0.00 | 0.00 | 0.00 | 86 | 1020.7 |
| 20260507121200 | 23 | 331 | 17.7 | 17.7 | 0.00 | 0.00 | 0.00 | 86 | 1020.7 |
| 20260507121101 | 23 | 355 | 4.8 | 16.1 | 0.00 | 0.00 | 0.00 | 86 | 1020.7 |
| 20260507121002 | 23 | 22 | 6.4 | 16.1 | 0.00 | 0.00 | 0.00 | 86 | 1020.7 |
| 20260507120902 | 23 | 26 | 6.4 | 16.1 | 0.00 | 0.00 | 0.00 | 86 | 1020.7 |
| 20260507120803 | 23 | 11 | 4.8 | 16.1 | 0.00 | 0.00 | 0.00 | 86 | 1020.6 |
| 20260507120701 | 23 | 331 | 8.0 | 16.1 | 0.00 | 0.00 | 0.00 | 86 | 1020.7 |
| 20260507120601 | 23 | 355 | 8.0 | 16.1 | 0.00 | 0.00 | 0.00 | 86 | 1020.8 |
| 20260507120404 | 23 | 5 | 8.0 | 16.1 | 0.00 | 0.00 | 0.00 | 86 | 1020.7 |
| 20260507120303 | 23 | 360 | 6.4 | 16.1 | 0.00 | 0.00 | 0.00 | 86 | 1020.7 |
| 20260507120003 | 23 | 331 | 9.7 | 16.1 | 0.00 | 0.00 | 0.00 | 86 | 1020.8 |
| 20260507115902 | 23 | 331 | 14.5 | 17.7 | 0.00 | 0.00 | 0.00 | 86 | 1020.8 |
| 20260507115802 | 23 | 355 | 9.7 | 17.7 | 0.00 | 0.00 | 0.00 | 86 | 1020.8 |
| 20260507115702 | 23 | 341 | 9.7 | 17.7 | 0.00 | 0.00 | 0.00 | 86 | 1020.8 |
| 20260507115601 | 23 | 25 | 8.0 | 17.7 | 0.00 | 0.00 | 0.00 | 86 | 1020.8 |
| 20260507115401 | 23 | 5 | 4.8 | 17.7 | 0.00 | 0.00 | 0.00 | 86 | 1020.8 |
| 20260507115302 | 23 | 355 | 4.8 | 17.7 | 0.00 | 0.00 | 0.00 | 86 | 1020.8 |
| 20260507115202 | 23 | 24 | 9.7 | 17.7 | 0.00 | 0.00 | 0.00 | 86 | 1020.8 |
| 20260507115102 | 23 | 341 | 12.9 | 17.7 | 0.00 | 0.00 | 0.00 | 86 | 1020.8 |
| 20260507115001 | 23 | 13 | 12.9 | 14.5 | 0.00 | 0.00 | 0.00 | 86 | 1020.8 |
| 20260507114903 | 23 | 344 | 8.0 | 14.5 | 0.00 | 0.00 | 0.00 | 86 | 1020.9 |
| 20260507114602 | 23 | 342 | 12.9 | 14.5 | 0.00 | 0.00 | 0.00 | 86 | 1020.8 |
| 20260507114503 | 23 | 5 | 8.0 | 16.1 | 0.00 | 0.00 | 0.00 | 86 | 1020.9 |
| 20260507114304 | 23 | 34 | 4.8 | 16.1 | 0.00 | 0.00 | 0.00 | 86 | 1020.8 |
| 20260507114203 | 23 | 326 | 12.9 | 17.7 | 0.00 | 0.00 | 0.00 | 86 | 1020.9 |
| 20260507114102 | 23 | 333 | 8.0 | 17.7 | 0.00 | 0.00 | 0.00 | 86 | 1021.0 |
| 20260507114002 | 23 | 360 | 6.4 | 17.7 | 0.00 | 0.00 | 0.00 | 86 | 1020.9 |
| 20260507113902 | 23 | 19 | 8.0 | 17.7 | 0.00 | 0.00 | 0.00 | 86 | 1020.9 |
| 20260507113803 | 23 | 346 | 8.0 | 17.7 | 0.00 | 0.00 | 0.00 | 86 | 1021.0 |
| 20260507113703 | 23 | 342 | 12.9 | 17.7 | 0.00 | 0.00 | 0.00 | 86 | 1021.0 |
| 20260507113602 | 23 | 350 | 12.9 | 17.7 | 0.00 | 0.00 | 0.00 | 86 | 1021.0 |
| 20260507113501 | 23 | 360 | 6.4 | 17.7 | 0.00 | 0.00 | 0.00 | 86 | 1021.0 |
| 20260507113403 | 23 | 10 | 12.9 | 17.7 | 0.00 | 0.00 | 0.00 | 86 | 1021.0 |
| 20260507113303 | 23 | 336 | 12.9 | 17.7 | 0.00 | 0.00 | 0.00 | 86 | 1021.0 |
| 20260507113102 | 23 | 331 | 9.7 | 16.1 | 0.00 | 0.00 | 0.00 | 86 | 1021.0 |
| 20260507112901 | 23 | 312 | 9.7 | 16.1 | 0.00 | 0.00 | 0.00 | 86 | 1021.1 |
| 20260507112801 | 23 | 342 | 12.9 | 16.1 | 0.00 | 0.00 | 0.00 | 86 | 1021.1 |
| 20260507112701 | 23 | 35 | 8.0 | 16.1 | 0.00 | 0.00 | 0.00 | 87 | 1021.2 |
| 20260507112602 | 23 | 330 | 9.7 | 16.1 | 0.00 | 0.00 | 0.00 | 87 | 1021.1 |
| 20260507112503 | 23 | 355 | 8.0 | 16.1 | 0.00 | 0.00 | 0.00 | 87 | 1021.1 |
| 20260507112402 | 23 | 11 | 12.9 | 16.1 | 0.00 | 0.00 | 0.00 | 87 | 1021.2 |
| 20260507112306 | 23 | 355 | 8.0 | 16.1 | 0.00 | 0.00 | 0.00 | 86 | 1021.1 |
| 20260507112203 | 23 | 338 | 6.4 | 16.1 | 0.00 | 0.00 | 0.00 | 87 | 1021.1 |
| 20260507112100 | 23 | 343 | 8.0 | 16.1 | 0.00 | 0.00 | 0.00 | 86 | 1021.0 |
| 20260507112001 | 23 | 334 | 9.7 | 16.1 | 0.00 | 0.00 | 0.00 | 86 | 1021.1 |
| 20260507111901 | 24 | 24 | 8.0 | 16.1 | 0.00 | 0.00 | 0.00 | 86 | 1021.1 |
| 20260507111801 | 24 | 360 | 9.7 | 19.3 | 0.00 | 0.00 | 0.00 | 86 | 1021.2 |
| 20260507111703 | 24 | 347 | 14.5 | 19.3 | 0.00 | 0.00 | 0.00 | 86 | 1021.1 |
| 20260507111601 | 24 | 344 | 9.7 | 19.3 | 0.00 | 0.00 | 0.00 | 86 | 1021.1 |
| 20260507111501 | 23 | 360 | 9.7 | 19.3 | 0.00 | 0.00 | 0.00 | 86 | 1021.1 |
| 20260507111402 | 24 | 5 | 6.4 | 19.3 | 0.00 | 0.00 | 0.00 | 86 | 1021.2 |
| 20260507111301 | 23 | 355 | 8.0 | 19.3 | 0.00 | 0.00 | 0.00 | 86 | 1021.1 |
| 20260507111203 | 23 | 329 | 9.7 | 19.3 | 0.00 | 0.00 | 0.00 | 86 | 1021.2 |
| 20260507111103 | 23 | 9 | 4.8 | 19.3 | 0.00 | 0.00 | 0.00 | 86 | 1021.2 |
| 20260507111001 | 23 | 346 | 14.5 | 19.3 | 0.00 | 0.00 | 0.00 | 86 | 1021.1 |
| 20260507110902 | 24 | 5 | 9.7 | 19.3 | 0.00 | 0.00 | 0.00 | 86 | 1021.1 |
| 20260507110801 | 24 | 340 | 8.0 | 19.3 | 0.00 | 0.00 | 0.00 | 86 | 1021.2 |
| 20260507110601 | 23 | 336 | 9.7 | 19.3 | 0.00 | 0.00 | 0.00 | 86 | 1021.2 |
| 20260507110502 | 23 | 332 | 14.5 | 19.3 | 0.00 | 0.00 | 0.00 | 86 | 1021.2 |
| 20260507110400 | 23 | 26 | 9.7 | 19.3 | 0.00 | 0.00 | 0.00 | 86 | 1021.3 |
| 20260507110301 | 23 | 349 | 8.0 | 19.3 | 0.00 | 0.00 | 0.00 | 86 | 1021.3 |
| 20260507110201 | 23 | 325 | 12.9 | 19.3 | 0.00 | 0.00 | 0.00 | 86 | 1021.3 |
| 20260507105902 | 24 | 331 | 12.9 | 19.3 | 0.00 | 0.00 | 0.00 | 86 | 1021.4 |
| 20260507105801 | 24 | 311 | 12.9 | 19.3 | 0.00 | 0.00 | 0.00 | 86 | 1021.3 |
| 20260507105702 | 24 | 5 | 9.7 | 19.3 | 0.00 | 0.00 | 0.00 | 86 | 1021.3 |
| 20260507105603 | 24 | 355 | 6.4 | 19.3 | 0.00 | 0.00 | 0.00 | 86 | 1021.3 |
| 20260507105501 | 24 | 336 | 14.5 | 19.3 | 0.00 | 0.00 | 0.00 | 86 | 1021.3 |
| 20260507105402 | 24 | 333 | 9.7 | 19.3 | 0.00 | 0.00 | 0.00 | 86 | 1021.4 |
| 20260507105103 | 24 | 355 | 12.9 | 19.3 | 0.00 | 0.00 | 0.00 | 86 | 1021.3 |
| 20260507105003 | 24 | 320 | 14.5 | 19.3 | 0.00 | 0.00 | 0.00 | 86 | 1021.3 |
| 20260507104902 | 24 | 342 | 14.5 | 19.3 | 0.00 | 0.00 | 0.00 | 86 | 1021.3 |
| 20260507104801 | 24 | 324 | 8.0 | 19.3 | 0.00 | 0.00 | 0.00 | 86 | 1021.4 |
| 20260507104702 | 24 | 328 | 12.9 | 19.3 | 0.00 | 0.00 | 0.00 | 86 | 1021.3 |
| 20260507104501 | 24 | 346 | 8.0 | 19.3 | 0.00 | 0.00 | 0.00 | 86 | 1021.3 |
| 20260507104403 | 24 | 338 | 19.3 | 19.3 | 0.00 | 0.00 | 0.00 | 86 | 1021.3 |
| 20260507104300 | 24 | 345 | 16.1 | 19.3 | 0.00 | 0.00 | 0.00 | 86 | 1021.3 |
| 20260507104203 | 24 | 355 | 12.9 | 20.9 | 0.00 | 0.00 | 0.00 | 86 | 1021.2 |
| 20260507104002 | 24 | 15 | 8.0 | 20.9 | 0.00 | 0.00 | 0.00 | 86 | 1021.4 |
| 20260507103901 | 24 | 328 | 14.5 | 20.9 | 0.00 | 0.00 | 0.00 | 86 | 1021.3 |
| 20260507103601 | 24 | 333 | 19.3 | 20.9 | 0.00 | 0.00 | 0.00 | 86 | 1021.4 |
| 20260507103502 | 24 | 326 | 6.4 | 20.9 | 0.00 | 0.00 | 0.00 | 86 | 1021.3 |
| 20260507103303 | 24 | 321 | 16.1 | 19.3 | 0.00 | 0.00 | 0.00 | 86 | 1021.5 |
| 20260507103202 | 24 | 331 | 9.7 | 19.3 | 0.00 | 0.00 | 0.00 | 86 | 1021.5 |
| 20260507103002 | 24 | 15 | 12.9 | 19.3 | 0.00 | 0.00 | 0.00 | 86 | 1021.5 |
| 20260507102901 | 24 | 320 | 8.0 | 19.3 | 0.00 | 0.00 | 0.00 | 86 | 1021.5 |
| 20260507102801 | 24 | 319 | 9.7 | 17.7 | 0.00 | 0.00 | 0.00 | 86 | 1021.5 |
| 20260507102701 | 24 | 22 | 12.9 | 17.7 | 0.00 | 0.00 | 0.00 | 86 | 1021.5 |
| 20260507102603 | 24 | 351 | 12.9 | 20.9 | 0.00 | 0.00 | 0.00 | 86 | 1021.4 |
| 20260507102503 | 23 | 325 | 8.0 | 20.9 | 0.00 | 0.00 | 0.00 | 86 | 1021.5 |
| 20260507102402 | 23 | 344 | 8.0 | 20.9 | 0.00 | 0.00 | 0.00 | 86 | 1021.6 |
| 20260507102306 | 23 | 315 | 9.7 | 20.9 | 0.00 | 0.00 | 0.00 | 86 | 1021.5 |
| 20260507102201 | 23 | 5 | 8.0 | 20.9 | 0.00 | 0.00 | 0.00 | 86 | 1021.5 |
| 20260507102102 | 23 | 360 | 12.9 | 20.9 | 0.00 | 0.00 | 0.00 | 86 | 1021.6 |
| 20260507102002 | 23 | 330 | 16.1 | 20.9 | 0.00 | 0.00 | 0.00 | 86 | 1021.5 |
| 20260507101805 | 24 | 345 | 17.7 | 20.9 | 0.00 | 0.00 | 0.00 | 86 | 1021.5 |
| 20260507101702 | 24 | 308 | 20.9 | 20.9 | 0.00 | 0.00 | 0.00 | 86 | 1021.5 |
| 20260507101604 | 24 | 319 | 12.9 | 19.3 | 0.00 | 0.00 | 0.00 | 86 | 1021.5 |
| 20260507101507 | 24 | 332 | 4.8 | 19.3 | 0.00 | 0.00 | 0.00 | 86 | 1021.5 |
| 20260507101302 | 24 | 342 | 12.9 | 19.3 | 0.00 | 0.00 | 0.00 | 86 | 1021.5 |
| 20260507101201 | 24 | 329 | 4.8 | 19.3 | 0.00 | 0.00 | 0.00 | 86 | 1021.5 |
| 20260507101102 | 23 | 288 | 12.9 | 19.3 | 0.00 | 0.00 | 0.00 | 86 | 1021.5 |
| 20260507101003 | 24 | 321 | 8.0 | 19.3 | 0.00 | 0.00 | 0.00 | 86 | 1021.5 |
| 20260507100904 | 24 | 355 | 17.7 | 19.3 | 0.00 | 0.00 | 0.00 | 86 | 1021.5 |
| 20260507100704 | 24 | 313 | 12.9 | 19.3 | 0.00 | 0.00 | 0.00 | 86 | 1021.5 |
| 20260507100602 | 24 | 5 | 12.9 | 19.3 | 0.00 | 0.00 | 0.00 | 86 | 1021.6 |
| 20260507100504 | 24 | 338 | 14.5 | 19.3 | 0.00 | 0.00 | 0.00 | 86 | 1021.6 |
| 20260507100402 | 24 | 344 | 17.7 | 19.3 | 0.00 | 0.00 | 0.00 | 86 | 1021.6 |
| 20260507100309 | 24 | 355 | 12.9 | 19.3 | 0.00 | 0.00 | 0.00 | 86 | 1021.6 |
| 20260507100203 | 24 | 325 | 8.0 | 19.3 | 0.00 | 0.00 | 0.00 | 86 | 1021.6 |
| 20260507100009 | 24 | 342 | 6.4 | 19.3 | 0.00 | 0.00 | 0.00 | 86 | 1021.6 |
| 20260507095903 | 24 | 331 | 14.5 | 19.3 | 0.00 | 0.00 | 0.00 | 86 | 1021.6 |
| 20260507095804 | 24 | 325 | 14.5 | 19.3 | 0.00 | 0.00 | 0.00 | 86 | 1021.7 |
| 20260507095703 | 24 | 360 | 14.5 | 22.5 | 0.00 | 0.00 | 0.00 | 86 | 1021.6 |
| 20260507095603 | 24 | 5 | 12.9 | 22.5 | 0.00 | 0.00 | 0.00 | 86 | 1021.6 |
| 20260507095503 | 24 | 321 | 9.7 | 22.5 | 0.00 | 0.00 | 0.00 | 86 | 1021.7 |
| 20260507095403 | 24 | 11 | 11.3 | 22.5 | 0.00 | 0.00 | 0.00 | 86 | 1021.6 |
| 20260507095306 | 24 | 360 | 16.1 | 22.5 | 0.00 | 0.00 | 0.00 | 86 | 1021.7 |
| 20260507095203 | 24 | 9 | 16.1 | 22.5 | 0.00 | 0.00 | 0.00 | 86 | 1021.6 |
| 20260507095103 | 24 | 338 | 4.8 | 22.5 | 0.00 | 0.00 | 0.00 | 86 | 1021.6 |
| 20260507095003 | 24 | 22 | 8.0 | 22.5 | 0.00 | 0.00 | 0.00 | 86 | 1021.6 |
| 20260507094903 | 24 | 22 | 14.5 | 20.9 | 0.00 | 0.00 | 0.00 | 86 | 1021.6 |
| 20260507094803 | 24 | 313 | 17.7 | 19.3 | 0.00 | 0.00 | 0.00 | 86 | 1021.6 |
| 20260507094706 | 24 | 331 | 14.5 | 19.3 | 0.00 | 0.00 | 0.00 | 86 | 1021.7 |
| 20260507094604 | 24 | 319 | 14.5 | 19.3 | 0.00 | 0.00 | 0.00 | 86 | 1021.6 |
| 20260507094503 | 24 | 312 | 9.7 | 19.3 | 0.00 | 0.00 | 0.00 | 86 | 1021.7 |
| 20260507094405 | 24 | 323 | 12.9 | 19.3 | 0.00 | 0.00 | 0.00 | 86 | 1021.7 |
| 20260507094302 | 24 | 329 | 14.5 | 19.3 | 0.00 | 0.00 | 0.00 | 86 | 1021.7 |
| 20260507094204 | 24 | 346 | 6.4 | 19.3 | 0.00 | 0.00 | 0.00 | 86 | 1021.7 |
| 20260507094104 | 24 | 342 | 17.7 | 19.3 | 0.00 | 0.00 | 0.00 | 86 | 1021.7 |
| 20260507093904 | 24 | 313 | 4.8 | 19.3 | 0.00 | 0.00 | 0.00 | 86 | 1021.7 |
| 20260507093803 | 24 | 344 | 9.7 | 19.3 | 0.00 | 0.00 | 0.00 | 86 | 1021.7 |
| 20260507093706 | 24 | 342 | 14.5 | 19.3 | 0.00 | 0.00 | 0.00 | 86 | 1021.7 |
| 20260507093504 | 24 | 5 | 16.1 | 20.9 | 0.00 | 0.00 | 0.00 | 86 | 1021.8 |
| 20260507093410 | 24 | 360 | 16.1 | 20.9 | 0.00 | 0.00 | 0.00 | 86 | 1021.8 |
| 20260507093302 | 24 | 338 | 9.7 | 20.9 | 0.00 | 0.00 | 0.00 | 86 | 1021.8 |
| 20260507093204 | 24 | 355 | 12.9 | 20.9 | 0.00 | 0.00 | 0.00 | 86 | 1021.8 |
| 20260507093004 | 24 | 336 | 6.4 | 20.9 | 0.00 | 0.00 | 0.00 | 86 | 1021.8 |
| 20260507092904 | 24 | 340 | 8.0 | 20.9 | 0.00 | 0.00 | 0.00 | 86 | 1021.9 |
| 20260507092803 | 24 | 355 | 14.5 | 20.9 | 0.00 | 0.00 | 0.00 | 86 | 1021.9 |
| 20260507092705 | 24 | 351 | 3.2 | 19.3 | 0.00 | 0.00 | 0.00 | 86 | 1021.8 |
| 20260507092603 | 24 | 328 | 8.0 | 19.3 | 0.00 | 0.00 | 0.00 | 86 | 1021.9 |
| 20260507092504 | 24 | 334 | 6.4 | 19.3 | 0.00 | 0.00 | 0.00 | 86 | 1021.9 |
| 20260507092404 | 24 | 360 | 9.7 | 19.3 | 0.00 | 0.00 | 0.00 | 86 | 1021.9 |
| 20260507092204 | 24 | 360 | 14.5 | 20.9 | 0.00 | 0.00 | 0.00 | 86 | 1021.9 |
| 20260507092104 | 24 | 327 | 9.7 | 20.9 | 0.00 | 0.00 | 0.00 | 86 | 1022.0 |
| 20260507092005 | 24 | 343 | 9.7 | 20.9 | 0.00 | 0.00 | 0.00 | 86 | 1021.9 |
| 20260507091805 | 24 | 319 | 19.3 | 20.9 | 0.00 | 0.00 | 0.00 | 86 | 1021.9 |
| 20260507091703 | 24 | 321 | 12.9 | 20.9 | 0.00 | 0.00 | 0.00 | 86 | 1021.9 |
| 20260507091603 | 24 | 5 | 4.8 | 20.9 | 0.00 | 0.00 | 0.00 | 86 | 1022.0 |
| 20260507091503 | 24 | 340 | 8.0 | 20.9 | 0.00 | 0.00 | 0.00 | 86 | 1021.9 |
| 20260507091404 | 24 | 340 | 16.1 | 20.9 | 0.00 | 0.00 | 0.00 | 86 | 1021.8 |
| 20260507091303 | 24 | 333 | 8.0 | 20.9 | 0.00 | 0.00 | 0.00 | 86 | 1021.9 |
| 20260507091204 | 24 | 344 | 8.0 | 20.9 | 0.00 | 0.00 | 0.00 | 86 | 1021.9 |
| 20260507091105 | 24 | 9 | 12.9 | 20.9 | 0.00 | 0.00 | 0.00 | 86 | 1021.9 |
| 20260507091003 | 24 | 319 | 9.7 | 20.9 | 0.00 | 0.00 | 0.00 | 86 | 1021.8 |
| 20260507090903 | 24 | 330 | 9.7 | 20.9 | 0.00 | 0.00 | 0.00 | 86 | 1021.9 |
| 20260507090803 | 24 | 355 | 9.7 | 20.9 | 0.00 | 0.00 | 0.00 | 86 | 1021.9 |
| 20260507090702 | 24 | 336 | 8.0 | 20.9 | 0.00 | 0.00 | 0.00 | 86 | 1021.8 |
| 20260507090603 | 24 | 360 | 6.4 | 20.9 | 0.00 | 0.00 | 0.00 | 86 | 1021.9 |
| 20260507090504 | 24 | 350 | 8.0 | 20.9 | 0.00 | 0.00 | 0.00 | 86 | 1022.0 |
| 20260507090404 | 24 | 355 | 14.5 | 20.9 | 0.00 | 0.00 | 0.00 | 86 | 1021.9 |
| 20260507090305 | 24 | 334 | 14.5 | 20.9 | 0.00 | 0.00 | 0.00 | 86 | 1021.9 |
| 20260507090205 | 24 | 330 | 19.3 | 19.3 | 0.00 | 0.00 | 0.00 | 86 | 1021.9 |
| 20260507090103 | 24 | 351 | 9.7 | 19.3 | 0.00 | 0.00 | 0.00 | 86 | 1021.9 |
| 20260507090003 | 24 | 11 | 16.1 | 19.3 | 0.00 | 0.00 | 0.00 | 86 | 1021.9 |
| 20260507085904 | 24 | 342 | 17.7 | 19.3 | 0.00 | 0.00 | 0.00 | 86 | 1021.9 |
| 20260507085803 | 24 | 348 | 8.0 | 19.3 | 0.00 | 0.00 | 0.00 | 86 | 1021.9 |
| 20260507085703 | 24 | 355 | 8.0 | 19.3 | 0.00 | 0.00 | 0.00 | 86 | 1022.0 |
| 20260507085503 | 24 | 340 | 9.7 | 19.3 | 0.00 | 0.00 | 0.00 | 86 | 1022.0 |
| 20260507085404 | 24 | 13 | 6.4 | 19.3 | 0.00 | 0.00 | 0.00 | 86 | 1021.9 |
| 20260507085307 | 24 | 313 | 9.7 | 20.9 | 0.00 | 0.00 | 0.00 | 86 | 1022.1 |
| 20260507085203 | 24 | 329 | 8.0 | 20.9 | 0.00 | 0.00 | 0.00 | 86 | 1021.9 |
| 20260507085003 | 24 | 350 | 6.4 | 20.9 | 0.00 | 0.00 | 0.00 | 86 | 1022.0 |
| 20260507084904 | 24 | 323 | 8.0 | 20.9 | 0.00 | 0.00 | 0.00 | 86 | 1022.0 |
| 20260507084802 | 24 | 332 | 14.5 | 20.9 | 0.00 | 0.00 | 0.00 | 86 | 1021.9 |
| 20260507084703 | 24 | 344 | 6.4 | 20.9 | 0.00 | 0.00 | 0.00 | 86 | 1022.0 |
| 20260507084603 | 24 | 355 | 8.0 | 20.9 | 0.00 | 0.00 | 0.00 | 86 | 1022.0 |
| 20260507084504 | 24 | 337 | 17.7 | 20.9 | 0.00 | 0.00 | 0.00 | 86 | 1022.0 |
| 20260507084404 | 24 | 330 | 9.7 | 20.9 | 0.00 | 0.00 | 0.00 | 86 | 1022.0 |
| 20260507084204 | 24 | 350 | 14.5 | 19.3 | 0.00 | 0.00 | 0.00 | 86 | 1022.0 |
| 20260507084103 | 24 | 343 | 6.4 | 22.5 | 0.00 | 0.00 | 0.00 | 86 | 1021.9 |
| 20260507084005 | 24 | 355 | 12.9 | 22.5 | 0.00 | 0.00 | 0.00 | 86 | 1021.9 |
| 20260507083803 | 24 | 350 | 17.7 | 22.5 | 0.00 | 0.00 | 0.00 | 86 | 1022.0 |
| 20260507083606 | 24 | 325 | 8.0 | 22.5 | 0.00 | 0.00 | 0.00 | 86 | 1022.0 |
| 20260507083503 | 24 | 321 | 9.7 | 22.5 | 0.00 | 0.00 | 0.00 | 86 | 1022.0 |
| 20260507083403 | 24 | 355 | 9.7 | 22.5 | 0.00 | 0.00 | 0.00 | 86 | 1021.9 |
| 20260507083304 | 24 | 338 | 12.9 | 22.5 | 0.00 | 0.00 | 0.00 | 86 | 1021.9 |
| 20260507083202 | 24 | 318 | 9.7 | 20.9 | 0.00 | 0.00 | 0.00 | 86 | 1022.0 |
| 20260507083103 | 24 | 343 | 12.9 | 20.9 | 0.00 | 0.00 | 0.00 | 86 | 1021.9 |
| 20260507083003 | 24 | 340 | 12.9 | 20.9 | 0.00 | 0.00 | 0.00 | 86 | 1022.0 |
| 20260507082904 | 24 | 5 | 14.5 | 20.9 | 0.00 | 0.00 | 0.00 | 86 | 1021.9 |
| 20260507082803 | 24 | 336 | 8.0 | 20.9 | 0.00 | 0.00 | 0.00 | 86 | 1022.0 |
| 20260507082704 | 24 | 19 | 6.4 | 20.9 | 0.00 | 0.00 | 0.00 | 86 | 1021.9 |
| 20260507082603 | 24 | 340 | 9.7 | 20.9 | 0.00 | 0.00 | 0.00 | 86 | 1021.9 |
| 20260507082504 | 24 | 355 | 4.8 | 20.9 | 0.00 | 0.00 | 0.00 | 86 | 1022.0 |
| 20260507082403 | 24 | 322 | 8.0 | 20.9 | 0.00 | 0.00 | 0.00 | 86 | 1022.0 |
| 20260507082306 | 24 | 293 | 12.9 | 20.9 | 0.00 | 0.00 | 0.00 | 86 | 1022.0 |
| 20260507082204 | 24 | 355 | 16.1 | 17.7 | 0.00 | 0.00 | 0.00 | 86 | 1021.9 |
| 20260507082104 | 24 | 345 | 9.7 | 17.7 | 0.00 | 0.00 | 0.00 | 86 | 1022.0 |
| 20260507082005 | 24 | 16 | 6.4 | 17.7 | 0.00 | 0.00 | 0.00 | 86 | 1022.0 |
| 20260507081903 | 24 | 360 | 17.7 | 17.7 | 0.00 | 0.00 | 0.00 | 86 | 1022.0 |
| 20260507081810 | 24 | 355 | 9.7 | 17.7 | 0.00 | 0.00 | 0.00 | 86 | 1021.9 |
| 20260507081703 | 24 | 339 | 16.1 | 19.3 | 0.00 | 0.00 | 0.00 | 86 | 1022.0 |
| 20260507081603 | 24 | 331 | 8.0 | 19.3 | 0.00 | 0.00 | 0.00 | 86 | 1022.0 |
| 20260507081504 | 24 | 360 | 9.7 | 19.3 | 0.00 | 0.00 | 0.00 | 86 | 1021.9 |
| 20260507081403 | 24 | 313 | 8.0 | 19.3 | 0.00 | 0.00 | 0.00 | 86 | 1022.0 |
| 20260507081303 | 24 | 345 | 4.8 | 19.3 | 0.00 | 0.00 | 0.00 | 86 | 1022.0 |
| 20260507081203 | 24 | 360 | 8.0 | 19.3 | 0.00 | 0.00 | 0.00 | 86 | 1021.9 |
| 20260507081104 | 24 | 340 | 9.7 | 19.3 | 0.00 | 0.00 | 0.00 | 86 | 1021.9 |
| 20260507081003 | 24 | 20 | 8.0 | 19.3 | 0.00 | 0.00 | 0.00 | 86 | 1021.9 |
| 20260507080804 | 24 | 315 | 16.1 | 19.3 | 0.00 | 0.00 | 0.00 | 86 | 1021.9 |
| 20260507080703 | 24 | 327 | 8.0 | 19.3 | 0.00 | 0.00 | 0.00 | 86 | 1021.9 |
| 20260507080604 | 24 | 355 | 12.9 | 19.3 | 0.00 | 0.00 | 0.00 | 86 | 1021.9 |
| 20260507080504 | 24 | 325 | 9.7 | 19.3 | 0.00 | 0.00 | 0.00 | 86 | 1022.0 |
| 20260507080203 | 24 | 338 | 9.7 | 19.3 | 0.00 | 0.00 | 0.00 | 86 | 1022.0 |
| 20260507080103 | 24 | 325 | 6.4 | 19.3 | 0.00 | 0.00 | 0.00 | 86 | 1022.0 |
| 20260507080005 | 24 | 307 | 6.4 | 19.3 | 0.00 | 0.00 | 0.00 | 86 | 1022.0 |
| 20260507075903 | 24 | 355 | 12.9 | 20.9 | 0.00 | 0.00 | 0.00 | 86 | 1021.9 |
| 20260507075704 | 24 | 336 | 16.1 | 20.9 | 0.00 | 0.00 | 0.00 | 86 | 1021.9 |
| 20260507075605 | 24 | 350 | 12.9 | 20.9 | 0.00 | 0.00 | 0.00 | 86 | 1022.0 |
| 20260507075503 | 24 | 342 | 9.7 | 20.9 | 0.00 | 0.00 | 0.00 | 86 | 1022.0 |
| 20260507075404 | 24 | 329 | 9.7 | 20.9 | 0.00 | 0.00 | 0.00 | 86 | 1022.0 |
| 20260507075307 | 24 | 315 | 9.7 | 20.9 | 0.00 | 0.00 | 0.00 | 86 | 1022.0 |
| 20260507075204 | 24 | 328 | 9.7 | 20.9 | 0.00 | 0.00 | 0.00 | 86 | 1022.0 |
| 20260507075103 | 24 | 311 | 14.5 | 20.9 | 0.00 | 0.00 | 0.00 | 86 | 1021.9 |
| 20260507075003 | 24 | 342 | 14.5 | 17.7 | 0.00 | 0.00 | 0.00 | 86 | 1022.0 |
| 20260507074903 | 24 | 355 | 6.4 | 17.7 | 0.00 | 0.00 | 0.00 | 86 | 1021.9 |
| 20260507074805 | 24 | 315 | 8.0 | 19.3 | 0.00 | 0.00 | 0.00 | 86 | 1021.9 |
| 20260507074707 | 24 | 310 | 8.0 | 19.3 | 0.00 | 0.00 | 0.00 | 86 | 1022.0 |
| 20260507074606 | 24 | 348 | 16.1 | 19.3 | 0.00 | 0.00 | 0.00 | 86 | 1022.0 |
| 20260507074503 | 24 | 320 | 6.4 | 19.3 | 0.00 | 0.00 | 0.00 | 86 | 1021.9 |
| 20260507074403 | 24 | 355 | 6.4 | 19.3 | 0.00 | 0.00 | 0.00 | 86 | 1021.9 |
| 20260507074304 | 24 | 335 | 8.0 | 19.3 | 0.00 | 0.00 | 0.00 | 86 | 1021.9 |
| 20260507074204 | 24 | 355 | 9.7 | 19.3 | 0.00 | 0.00 | 0.00 | 86 | 1021.9 |
| 20260507074104 | 24 | 304 | 12.9 | 19.3 | 0.00 | 0.00 | 0.00 | 86 | 1021.9 |
| 20260507074004 | 24 | 333 | 14.5 | 19.3 | 0.00 | 0.00 | 0.00 | 86 | 1021.9 |
| 20260507073903 | 24 | 340 | 12.9 | 19.3 | 0.00 | 0.00 | 0.00 | 86 | 1021.9 |
| 20260507073804 | 24 | 317 | 9.7 | 19.3 | 0.00 | 0.00 | 0.00 | 86 | 1021.9 |
| 20260507073703 | 24 | 327 | 12.9 | 19.3 | 0.00 | 0.00 | 0.00 | 86 | 1021.8 |
| 20260507073605 | 24 | 330 | 12.9 | 19.3 | 0.00 | 0.00 | 0.00 | 86 | 1021.8 |
| 20260507073503 | 24 | 313 | 8.0 | 19.3 | 0.00 | 0.00 | 0.00 | 86 | 1021.7 |
| 20260507073404 | 24 | 327 | 9.7 | 19.3 | 0.00 | 0.00 | 0.00 | 86 | 1021.8 |
| 20260507073305 | 24 | 309 | 14.5 | 19.3 | 0.00 | 0.00 | 0.00 | 86 | 1021.9 |
| 20260507073204 | 24 | 325 | 9.7 | 19.3 | 0.00 | 0.00 | 0.00 | 86 | 1021.8 |
| 20260507073105 | 24 | 336 | 16.1 | 19.3 | 0.00 | 0.00 | 0.00 | 86 | 1021.8 |
| 20260507073003 | 24 | 296 | 12.9 | 19.3 | 0.00 | 0.00 | 0.00 | 86 | 1021.8 |
| 20260507072906 | 24 | 344 | 14.5 | 19.3 | 0.00 | 0.00 | 0.00 | 86 | 1021.7 |
| 20260507072803 | 24 | 300 | 11.3 | 19.3 | 0.00 | 0.00 | 0.00 | 86 | 1021.7 |
| 20260507072703 | 24 | 317 | 9.7 | 19.3 | 0.00 | 0.00 | 0.00 | 86 | 1021.7 |
| 20260507072603 | 24 | 291 | 11.3 | 19.3 | 0.00 | 0.00 | 0.00 | 86 | 1021.7 |
| 20260507072504 | 24 | 320 | 9.7 | 19.3 | 0.00 | 0.00 | 0.00 | 86 | 1021.7 |
| 20260507072404 | 24 | 341 | 14.5 | 17.7 | 0.00 | 0.00 | 0.00 | 86 | 1021.7 |
| 20260507072306 | 24 | 355 | 14.5 | 17.7 | 0.00 | 0.00 | 0.00 | 86 | 1021.7 |
| 20260507072104 | 24 | 330 | 3.2 | 17.7 | 0.00 | 0.00 | 0.00 | 86 | 1021.7 |
| 20260507072004 | 24 | 323 | 12.9 | 20.9 | 0.00 | 0.00 | 0.00 | 85 | 1021.7 |
| 20260507071903 | 24 | 325 | 16.1 | 20.9 | 0.00 | 0.00 | 0.00 | 85 | 1021.7 |
| 20260507071802 | 24 | 292 | 12.9 | 20.9 | 0.00 | 0.00 | 0.00 | 85 | 1021.6 |
| 20260507071705 | 24 | 343 | 8.0 | 20.9 | 0.00 | 0.00 | 0.00 | 85 | 1021.7 |
| 20260507071605 | 24 | 346 | 12.9 | 20.9 | 0.00 | 0.00 | 0.00 | 85 | 1021.7 |
| 20260507071504 | 24 | 5 | 14.5 | 20.9 | 0.00 | 0.00 | 0.00 | 85 | 1021.6 |
| 20260507071405 | 24 | 360 | 8.0 | 20.9 | 0.00 | 0.00 | 0.00 | 85 | 1021.6 |
| 20260507071304 | 24 | 321 | 14.5 | 20.9 | 0.00 | 0.00 | 0.00 | 85 | 1021.6 |
| 20260507071203 | 24 | 360 | 8.0 | 20.9 | 0.00 | 0.00 | 0.00 | 85 | 1021.5 |
| 20260507071104 | 24 | 317 | 9.7 | 19.3 | 0.00 | 0.00 | 0.00 | 85 | 1021.6 |
| 20260507071004 | 24 | 291 | 14.5 | 19.3 | 0.00 | 0.00 | 0.00 | 85 | 1021.6 |
| 20260507070903 | 24 | 321 | 14.5 | 19.3 | 0.00 | 0.00 | 0.00 | 85 | 1021.5 |
| 20260507070804 | 24 | 320 | 9.7 | 19.3 | 0.00 | 0.00 | 0.00 | 85 | 1021.6 |
| 20260507070711 | 24 | 292 | 16.1 | 19.3 | 0.00 | 0.00 | 0.00 | 85 | 1021.6 |
| 20260507070604 | 24 | 335 | 12.9 | 19.3 | 0.00 | 0.00 | 0.00 | 85 | 1021.5 |
| 20260507070503 | 24 | 304 | 16.1 | 19.3 | 0.00 | 0.00 | 0.00 | 85 | 1021.5 |
| 20260507070403 | 24 | 305 | 11.3 | 19.3 | 0.00 | 0.00 | 0.00 | 85 | 1021.5 |
| 20260507070303 | 24 | 316 | 14.5 | 19.3 | 0.00 | 0.00 | 0.00 | 85 | 1021.5 |
| 20260507070203 | 24 | 319 | 17.7 | 20.9 | 0.00 | 0.00 | 0.00 | 85 | 1021.5 |
| 20260507070010 | 24 | 345 | 6.4 | 20.9 | 0.00 | 0.00 | 0.00 | 85 | 1021.5 |
| 20260507065904 | 24 | 321 | 9.7 | 20.9 | 0.00 | 0.00 | 0.00 | 85 | 1021.6 |
| 20260507065803 | 24 | 290 | 6.4 | 20.9 | 0.00 | 0.00 | 0.00 | 85 | 1021.5 |
| 20260507065704 | 24 | 326 | 9.7 | 20.9 | 0.00 | 0.00 | 0.00 | 85 | 1021.5 |
| 20260507065607 | 24 | 312 | 16.1 | 20.9 | 0.00 | 0.00 | 0.00 | 85 | 1021.5 |
| 20260507065505 | 24 | 333 | 17.7 | 20.9 | 0.00 | 0.00 | 0.00 | 85 | 1021.5 |
| 20260507065306 | 24 | 313 | 9.7 | 20.9 | 0.00 | 0.00 | 0.00 | 85 | 1021.5 |
| 20260507065203 | 24 | 323 | 6.4 | 19.3 | 0.00 | 0.00 | 0.00 | 85 | 1021.3 |
| 20260507064904 | 24 | 300 | 12.9 | 19.3 | 0.00 | 0.00 | 0.00 | 85 | 1021.3 |
| 20260507064803 | 24 | 298 | 12.9 | 19.3 | 0.00 | 0.00 | 0.00 | 85 | 1021.3 |
| 20260507064706 | 24 | 355 | 14.5 | 19.3 | 0.00 | 0.00 | 0.00 | 85 | 1021.3 |
| 20260507064605 | 25 | 339 | 12.9 | 19.3 | 0.00 | 0.00 | 0.00 | 85 | 1021.2 |
| 20260507064404 | 25 | 333 | 6.4 | 19.3 | 0.00 | 0.00 | 0.00 | 85 | 1021.3 |
| 20260507064303 | 25 | 291 | 11.3 | 19.3 | 0.00 | 0.00 | 0.00 | 85 | 1021.2 |
| 20260507064103 | 25 | 344 | 8.0 | 22.5 | 0.00 | 0.00 | 0.00 | 85 | 1021.3 |
| 20260507064005 | 25 | 290 | 8.0 | 22.5 | 0.00 | 0.00 | 0.00 | 85 | 1021.3 |
| 20260507063904 | 25 | 294 | 12.9 | 22.5 | 0.00 | 0.00 | 0.00 | 84 | 1021.2 |
| 20260507063803 | 25 | 333 | 8.0 | 22.5 | 0.00 | 0.00 | 0.00 | 84 | 1021.2 |
| 20260507063704 | 25 | 325 | 12.9 | 22.5 | 0.00 | 0.00 | 0.00 | 84 | 1021.2 |
| 20260507063606 | 25 | 333 | 19.3 | 22.5 | 0.00 | 0.00 | 0.00 | 84 | 1021.1 |
| 20260507063503 | 25 | 317 | 14.5 | 22.5 | 0.00 | 0.00 | 0.00 | 84 | 1021.0 |
| 20260507063404 | 25 | 315 | 12.9 | 22.5 | 0.00 | 0.00 | 0.00 | 84 | 1021.1 |
| 20260507063204 | 25 | 328 | 17.7 | 17.7 | 0.00 | 0.00 | 0.00 | 84 | 1021.1 |
| 20260507063003 | 25 | 317 | 9.7 | 19.3 | 0.00 | 0.00 | 0.00 | 84 | 1021.1 |
| 20260507062704 | 25 | 355 | 9.7 | 19.3 | 0.00 | 0.00 | 0.00 | 84 | 1021.1 |
| 20260507062611 | 25 | 349 | 6.4 | 19.3 | 0.00 | 0.00 | 0.00 | 84 | 1021.1 |
| 20260507062503 | 25 | 324 | 12.9 | 19.3 | 0.00 | 0.00 | 0.00 | 84 | 1021.1 |
| 20260507062404 | 25 | 325 | 6.4 | 19.3 | 0.00 | 0.00 | 0.00 | 84 | 1021.1 |
| 20260507062306 | 25 | 324 | 19.3 | 20.9 | 0.00 | 0.00 | 0.00 | 84 | 1021.1 |
| 20260507062204 | 25 | 349 | 16.1 | 20.9 | 0.00 | 0.00 | 0.00 | 84 | 1021.0 |
| 20260507062104 | 25 | 336 | 8.0 | 20.9 | 0.00 | 0.00 | 0.00 | 83 | 1021.0 |
| 20260507062004 | 25 | 351 | 8.0 | 20.9 | 0.00 | 0.00 | 0.00 | 83 | 1021.1 |
| 20260507061904 | 25 | 341 | 8.0 | 20.9 | 0.00 | 0.00 | 0.00 | 83 | 1021.0 |
| 20260507061805 | 25 | 338 | 8.0 | 20.9 | 0.00 | 0.00 | 0.00 | 83 | 1020.9 |
| 20260507061704 | 25 | 10 | 11.3 | 20.9 | 0.00 | 0.00 | 0.00 | 83 | 1020.9 |
| 20260507061607 | 25 | 355 | 9.7 | 20.9 | 0.00 | 0.00 | 0.00 | 83 | 1020.9 |
| 20260507061504 | 25 | 331 | 17.7 | 20.9 | 0.00 | 0.00 | 0.00 | 83 | 1020.9 |
| 20260507061407 | 25 | 360 | 8.0 | 19.3 | 0.00 | 0.00 | 0.00 | 83 | 1020.9 |
| 20260507061304 | 25 | 335 | 12.9 | 20.9 | 0.00 | 0.00 | 0.00 | 83 | 1020.9 |
| 20260507061203 | 25 | 331 | 16.1 | 20.9 | 0.00 | 0.00 | 0.00 | 83 | 1020.8 |
| 20260507061103 | 25 | 343 | 9.7 | 20.9 | 0.00 | 0.00 | 0.00 | 83 | 1020.8 |
| 20260507061004 | 25 | 340 | 14.5 | 20.9 | 0.00 | 0.00 | 0.00 | 83 | 1020.8 |
| 20260507060904 | 25 | 330 | 14.5 | 20.9 | 0.00 | 0.00 | 0.00 | 83 | 1020.8 |
| 20260507060804 | 25 | 5 | 12.9 | 20.9 | 0.00 | 0.00 | 0.00 | 83 | 1020.8 |
| 20260507060704 | 25 | 312 | 8.0 | 20.9 | 0.00 | 0.00 | 0.00 | 83 | 1020.8 |
| 20260507060603 | 25 | 330 | 12.9 | 20.9 | 0.00 | 0.00 | 0.00 | 83 | 1020.8 |
| 20260507060505 | 25 | 323 | 14.5 | 19.3 | 0.00 | 0.00 | 0.00 | 83 | 1020.8 |
| 20260507060304 | 25 | 313 | 6.4 | 19.3 | 0.00 | 0.00 | 0.00 | 83 | 1020.7 |
| 20260507060204 | 25 | 340 | 9.7 | 20.9 | 0.00 | 0.00 | 0.00 | 83 | 1020.7 |
| 20260507060107 | 25 | 325 | 12.9 | 22.5 | 0.00 | 0.00 | 0.00 | 83 | 1020.6 |
| 20260507055903 | 25 | 331 | 16.1 | 22.5 | 0.00 | 0.00 | 0.00 | 83 | 1020.7 |
| 20260507055805 | 25 | 298 | 8.0 | 22.5 | 0.00 | 0.00 | 0.00 | 83 | 1020.6 |
| 20260507055705 | 25 | 327 | 17.7 | 22.5 | 0.00 | 0.00 | 0.00 | 83 | 1020.6 |
| 20260507055605 | 25 | 319 | 9.7 | 22.5 | 0.00 | 0.00 | 0.00 | 83 | 1020.7 |
| 20260507055504 | 25 | 349 | 12.9 | 22.5 | 0.00 | 0.00 | 0.00 | 83 | 1020.6 |
| 20260507055403 | 25 | 340 | 16.1 | 22.5 | 0.00 | 0.00 | 0.00 | 83 | 1020.6 |
| 20260507055204 | 25 | 360 | 14.5 | 20.9 | 0.00 | 0.00 | 0.00 | 83 | 1020.6 |
| 20260507055104 | 25 | 348 | 12.9 | 20.9 | 0.00 | 0.00 | 0.00 | 83 | 1020.6 |
| 20260507054803 | 25 | 328 | 17.7 | 20.9 | 0.00 | 0.00 | 0.00 | 83 | 1020.6 |
| 20260507054703 | 25 | 355 | 20.9 | 20.9 | 0.00 | 0.00 | 0.00 | 83 | 1020.6 |
| 20260507054605 | 25 | 309 | 14.5 | 20.9 | 0.00 | 0.00 | 0.00 | 83 | 1020.4 |
| 20260507054509 | 25 | 5 | 9.7 | 19.3 | 0.00 | 0.00 | 0.00 | 83 | 1020.5 |
| 20260507054404 | 25 | 351 | 9.7 | 19.3 | 0.00 | 0.00 | 0.00 | 83 | 1020.5 |
| 20260507054203 | 25 | 331 | 6.4 | 19.3 | 0.00 | 0.00 | 0.00 | 83 | 1020.4 |
| 20260507053906 | 25 | 308 | 11.3 | 19.3 | 0.00 | 0.00 | 0.00 | 83 | 1020.4 |
| 20260507053804 | 25 | 360 | 9.7 | 19.3 | 0.00 | 0.00 | 0.00 | 83 | 1020.3 |
| 20260507053704 | 25 | 330 | 9.7 | 19.3 | 0.00 | 0.00 | 0.00 | 83 | 1020.4 |
| 20260507053605 | 25 | 281 | 14.5 | 19.3 | 0.00 | 0.00 | 0.00 | 83 | 1020.3 |
| 20260507053403 | 25 | 355 | 12.9 | 20.9 | 0.00 | 0.00 | 0.00 | 83 | 1020.2 |
| 20260507053205 | 25 | 321 | 9.7 | 20.9 | 0.00 | 0.00 | 0.00 | 83 | 1020.2 |
| 20260507053105 | 25 | 286 | 9.7 | 20.9 | 0.00 | 0.00 | 0.00 | 83 | 1020.2 |
| 20260507053004 | 25 | 335 | 16.1 | 20.9 | 0.00 | 0.00 | 0.00 | 83 | 1020.2 |
| 20260507052804 | 25 | 339 | 16.1 | 20.9 | 0.00 | 0.00 | 0.00 | 83 | 1020.2 |
| 20260507052703 | 25 | 337 | 17.7 | 24.1 | 0.00 | 0.00 | 0.00 | 83 | 1020.2 |
| 20260507052604 | 25 | 335 | 12.9 | 24.1 | 0.00 | 0.00 | 0.00 | 83 | 1020.2 |
| 20260507052407 | 25 | 316 | 12.9 | 24.1 | 0.00 | 0.00 | 0.00 | 83 | 1020.2 |
| 20260507052306 | 25 | 311 | 9.7 | 24.1 | 0.00 | 0.00 | 0.00 | 83 | 1020.1 |
| 20260507052204 | 25 | 309 | 16.1 | 24.1 | 0.00 | 0.00 | 0.00 | 83 | 1020.2 |
| 20260507052003 | 25 | 336 | 12.9 | 24.1 | 0.00 | 0.00 | 0.00 | 83 | 1020.2 |
| 20260507051904 | 25 | 24 | 8.0 | 20.9 | 0.00 | 0.00 | 0.00 | 83 | 1020.2 |
| 20260507051803 | 25 | 342 | 9.7 | 19.3 | 0.00 | 0.00 | 0.00 | 83 | 1020.2 |
| 20260507051705 | 25 | 315 | 14.5 | 19.3 | 0.00 | 0.00 | 0.00 | 83 | 1020.2 |
| 20260507051603 | 25 | 327 | 12.9 | 19.3 | 0.00 | 0.00 | 0.00 | 83 | 1020.2 |
| 20260507051504 | 25 | 331 | 8.0 | 20.9 | 0.00 | 0.00 | 0.00 | 83 | 1020.1 |
| 20260507051405 | 25 | 280 | 12.9 | 20.9 | 0.00 | 0.00 | 0.00 | 83 | 1020.1 |
| 20260507051304 | 25 | 319 | 6.4 | 20.9 | 0.00 | 0.00 | 0.00 | 83 | 1020.0 |
| 20260507051203 | 25 | 313 | 8.0 | 20.9 | 0.00 | 0.00 | 0.00 | 83 | 1020.1 |
| 20260507051102 | 25 | 281 | 11.3 | 20.9 | 0.00 | 0.00 | 0.00 | 83 | 1020.1 |
| 20260507051009 | 25 | 327 | 12.9 | 24.1 | 0.00 | 0.00 | 0.00 | 83 | 1020.1 |
| 20260507050802 | 25 | 335 | 6.4 | 24.1 | 0.00 | 0.00 | 0.00 | 83 | 1020.0 |
| 20260507050702 | 25 | 355 | 9.7 | 24.1 | 0.00 | 0.00 | 0.00 | 83 | 1020.1 |
| 20260507050502 | 25 | 323 | 8.0 | 24.1 | 0.00 | 0.00 | 0.00 | 83 | 1020.0 |
| 20260507050401 | 25 | 343 | 14.5 | 24.1 | 0.00 | 0.00 | 0.00 | 83 | 1020.0 |
| 20260507050202 | 25 | 325 | 8.0 | 24.1 | 0.00 | 0.00 | 0.00 | 83 | 1019.9 |
| 20260507045903 | 25 | 297 | 19.3 | 22.5 | 0.00 | 0.00 | 0.00 | 83 | 1019.9 |
| 20260507045702 | 25 | 334 | 14.5 | 24.1 | 0.00 | 0.00 | 0.00 | 83 | 1019.9 |
| 20260507045602 | 25 | 347 | 12.9 | 24.1 | 0.00 | 0.00 | 0.00 | 83 | 1019.9 |
| 20260507045503 | 25 | 320 | 17.7 | 24.1 | 0.00 | 0.00 | 0.00 | 83 | 1019.9 |
| 20260507045402 | 25 | 360 | 6.4 | 27.4 | 0.00 | 0.00 | 0.00 | 83 | 1019.7 |
| 20260507045203 | 25 | 310 | 8.0 | 27.4 | 0.00 | 0.00 | 0.00 | 83 | 1019.8 |
| 20260507045102 | 25 | 5 | 12.9 | 27.4 | 0.00 | 0.00 | 0.00 | 83 | 1019.8 |
| 20260507045002 | 25 | 309 | 17.7 | 27.4 | 0.00 | 0.00 | 0.00 | 83 | 1019.8 |
| 20260507044902 | 25 | 296 | 14.5 | 27.4 | 0.00 | 0.00 | 0.00 | 83 | 1019.8 |
| 20260507044705 | 25 | 302 | 16.1 | 27.4 | 0.00 | 0.00 | 0.00 | 83 | 1019.8 |
| 20260507044604 | 25 | 311 | 20.9 | 27.4 | 0.00 | 0.00 | 0.00 | 83 | 1019.7 |
| 20260507044403 | 25 | 294 | 14.5 | 22.5 | 0.00 | 0.00 | 0.00 | 83 | 1019.8 |
| 20260507044102 | 25 | 306 | 11.3 | 22.5 | 0.00 | 0.00 | 0.00 | 83 | 1019.8 |
| 20260507044002 | 25 | 270 | 14.5 | 22.5 | 0.00 | 0.00 | 0.00 | 83 | 1019.7 |
| 20260507043902 | 25 | 312 | 17.7 | 22.5 | 0.00 | 0.00 | 0.00 | 83 | 1019.8 |
| 20260507043803 | 25 | 334 | 12.9 | 22.5 | 0.00 | 0.00 | 0.00 | 83 | 1019.8 |
| 20260507043702 | 25 | 335 | 8.0 | 22.5 | 0.00 | 0.00 | 0.00 | 83 | 1019.8 |
| 20260507043602 | 25 | 338 | 12.9 | 22.5 | 0.00 | 0.00 | 0.00 | 83 | 1019.7 |
| 20260507043503 | 25 | 313 | 17.7 | 22.5 | 0.00 | 0.00 | 0.00 | 83 | 1019.8 |
| 20260507043403 | 25 | 348 | 8.0 | 22.5 | 0.00 | 0.00 | 0.00 | 83 | 1019.7 |
| 20260507043302 | 25 | 351 | 14.5 | 22.5 | 0.00 | 0.00 | 0.00 | 83 | 1019.8 |
| 20260507043202 | 25 | 326 | 19.3 | 22.5 | 0.00 | 0.00 | 0.00 | 83 | 1019.7 |
| 20260507043102 | 25 | 319 | 12.9 | 22.5 | 0.00 | 0.00 | 0.00 | 83 | 1019.8 |
| 20260507043002 | 25 | 331 | 17.7 | 22.5 | 0.00 | 0.00 | 0.00 | 83 | 1019.7 |
| 20260507042903 | 25 | 294 | 16.1 | 22.5 | 0.00 | 0.00 | 0.00 | 83 | 1019.7 |
| 20260507042804 | 25 | 344 | 17.7 | 22.5 | 0.00 | 0.00 | 0.00 | 83 | 1019.6 |
| 20260507042703 | 25 | 315 | 14.5 | 22.5 | 0.00 | 0.00 | 0.00 | 83 | 1019.6 |
| 20260507042602 | 25 | 325 | 12.9 | 22.5 | 0.00 | 0.00 | 0.00 | 83 | 1019.7 |
| 20260507042503 | 25 | 298 | 19.3 | 22.5 | 0.00 | 0.00 | 0.00 | 83 | 1019.5 |
| 20260507042309 | 25 | 360 | 9.7 | 24.1 | 0.00 | 0.00 | 0.00 | 83 | 1019.6 |
| 20260507042203 | 25 | 299 | 14.5 | 24.1 | 0.00 | 0.00 | 0.00 | 83 | 1019.6 |
| 20260507042109 | 25 | 329 | 8.0 | 24.1 | 0.00 | 0.00 | 0.00 | 82 | 1019.6 |
| 20260507042003 | 25 | 321 | 14.5 | 24.1 | 0.00 | 0.00 | 0.00 | 83 | 1019.5 |
| 20260507041905 | 25 | 355 | 8.0 | 24.1 | 0.00 | 0.00 | 0.00 | 83 | 1019.6 |
| 20260507041802 | 25 | 329 | 12.9 | 24.1 | 0.00 | 0.00 | 0.00 | 82 | 1019.5 |
| 20260507041703 | 25 | 315 | 19.3 | 24.1 | 0.00 | 0.00 | 0.00 | 82 | 1019.5 |
| 20260507041602 | 25 | 313 | 14.5 | 24.1 | 0.00 | 0.00 | 0.00 | 83 | 1019.5 |
| 20260507041502 | 25 | 307 | 17.7 | 22.5 | 0.00 | 0.00 | 0.00 | 83 | 1019.5 |
| 20260507041410 | 25 | 311 | 14.5 | 22.5 | 0.00 | 0.00 | 0.00 | 83 | 1019.4 |
| 20260507041303 | 25 | 310 | 17.7 | 22.5 | 0.00 | 0.00 | 0.00 | 82 | 1019.4 |
| 20260507041202 | 25 | 310 | 12.9 | 22.5 | 0.00 | 0.00 | 0.00 | 83 | 1019.5 |
| 20260507041105 | 25 | 339 | 9.7 | 22.5 | 0.00 | 0.00 | 0.00 | 83 | 1019.3 |
| 20260507040904 | 25 | 326 | 17.7 | 24.1 | 0.00 | 0.00 | 0.00 | 82 | 1019.2 |
| 20260507040704 | 25 | 284 | 12.9 | 24.1 | 0.00 | 0.00 | 0.00 | 82 | 1019.2 |
| 20260507040603 | 25 | 293 | 17.7 | 24.1 | 0.00 | 0.00 | 0.00 | 82 | 1019.2 |
| 20260507040304 | 25 | 355 | 16.1 | 24.1 | 0.00 | 0.00 | 0.00 | 82 | 1019.2 |
| 20260507040104 | 25 | 321 | 19.3 | 22.5 | 0.00 | 0.00 | 0.00 | 82 | 1019.2 |
| 20260507040003 | 25 | 326 | 9.7 | 22.5 | 0.00 | 0.00 | 0.00 | 82 | 1019.2 |
| 20260507035902 | 25 | 323 | 9.7 | 22.5 | 0.00 | 0.00 | 0.00 | 82 | 1019.1 |
| 20260507035803 | 25 | 316 | 16.1 | 22.5 | 0.00 | 0.00 | 0.00 | 82 | 1019.1 |
| 20260507035706 | 25 | 351 | 9.7 | 22.5 | 0.00 | 0.00 | 0.00 | 82 | 1019.2 |
| 20260507035602 | 25 | 360 | 9.7 | 25.7 | 0.00 | 0.00 | 0.00 | 82 | 1019.2 |
| 20260507035403 | 25 | 326 | 22.5 | 25.7 | 0.00 | 0.00 | 0.00 | 82 | 1019.1 |
| 20260507035301 | 25 | 337 | 9.7 | 25.7 | 0.00 | 0.00 | 0.00 | 82 | 1019.2 |
| 20260507035203 | 25 | 9 | 14.5 | 25.7 | 0.00 | 0.00 | 0.00 | 82 | 1019.2 |
| 20260507035102 | 25 | 313 | 6.4 | 27.4 | 0.00 | 0.00 | 0.00 | 82 | 1019.2 |
| 20260507035003 | 25 | 331 | 12.9 | 27.4 | 0.00 | 0.00 | 0.00 | 82 | 1019.2 |
| 20260507034903 | 25 | 306 | 20.9 | 27.4 | 0.00 | 0.00 | 0.00 | 82 | 1019.1 |
| 20260507034805 | 25 | 314 | 16.1 | 27.4 | 0.00 | 0.00 | 0.00 | 82 | 1019.2 |
| 20260507034602 | 26 | 327 | 16.1 | 27.4 | 0.00 | 0.00 | 0.00 | 81 | 1019.2 |
| 20260507034502 | 26 | 299 | 20.9 | 27.4 | 0.00 | 0.00 | 0.00 | 81 | 1019.2 |
| 20260507034403 | 26 | 325 | 9.7 | 27.4 | 0.00 | 0.00 | 0.00 | 81 | 1019.1 |
| 20260507034303 | 26 | 317 | 12.9 | 27.4 | 0.00 | 0.00 | 0.00 | 81 | 1019.1 |
| 20260507034209 | 26 | 355 | 9.7 | 24.1 | 0.00 | 0.00 | 0.00 | 81 | 1019.0 |
| 20260507034103 | 26 | 292 | 12.9 | 24.1 | 0.00 | 0.00 | 0.00 | 81 | 1019.0 |
| 20260507033905 | 26 | 304 | 16.1 | 24.1 | 0.00 | 0.00 | 0.00 | 81 | 1019.1 |
| 20260507033804 | 26 | 292 | 17.7 | 24.1 | 0.00 | 0.00 | 0.00 | 81 | 1019.1 |
| 20260507033603 | 26 | 310 | 14.5 | 24.1 | 0.00 | 0.00 | 0.00 | 81 | 1019.0 |
| 20260507033503 | 26 | 28 | 14.5 | 24.1 | 0.00 | 0.00 | 0.00 | 81 | 1019.0 |
| 20260507033402 | 26 | 304 | 12.9 | 24.1 | 0.00 | 0.00 | 0.00 | 81 | 1019.0 |
| 20260507033203 | 26 | 331 | 9.7 | 24.1 | 0.00 | 0.00 | 0.00 | 80 | 1019.0 |
| 20260507033002 | 26 | 331 | 20.9 | 25.7 | 0.00 | 0.00 | 0.00 | 80 | 1019.0 |
| 20260507032702 | 26 | 329 | 16.1 | 25.7 | 0.00 | 0.00 | 0.00 | 80 | 1019.0 |
| 20260507032602 | 26 | 301 | 14.5 | 25.7 | 0.00 | 0.00 | 0.00 | 80 | 1018.9 |
| 20260507032305 | 26 | 331 | 17.7 | 25.7 | 0.00 | 0.00 | 0.00 | 80 | 1018.9 |
| 20260507032203 | 26 | 314 | 12.9 | 25.7 | 0.00 | 0.00 | 0.00 | 80 | 1018.9 |
| 20260507032104 | 26 | 315 | 17.7 | 25.7 | 0.00 | 0.00 | 0.00 | 80 | 1018.9 |
| 20260507032008 | 26 | 281 | 19.3 | 25.7 | 0.00 | 0.00 | 0.00 | 80 | 1018.9 |
| 20260507031902 | 26 | 323 | 17.7 | 25.7 | 0.00 | 0.00 | 0.00 | 80 | 1018.9 |
| 20260507031802 | 26 | 305 | 22.5 | 25.7 | 0.00 | 0.00 | 0.00 | 80 | 1018.9 |
| 20260507031703 | 26 | 308 | 20.9 | 25.7 | 0.00 | 0.00 | 0.00 | 80 | 1019.0 |
| 20260507031603 | 26 | 327 | 12.9 | 25.7 | 0.00 | 0.00 | 0.00 | 80 | 1019.0 |
| 20260507031502 | 26 | 328 | 17.7 | 25.7 | 0.00 | 0.00 | 0.00 | 80 | 1018.9 |
| 20260507031402 | 26 | 300 | 12.9 | 25.7 | 0.00 | 0.00 | 0.00 | 80 | 1018.9 |
| 20260507031304 | 26 | 346 | 16.1 | 25.7 | 0.00 | 0.00 | 0.00 | 80 | 1018.9 |
| 20260507031105 | 26 | 340 | 16.1 | 25.7 | 0.00 | 0.00 | 0.00 | 79 | 1018.9 |
| 20260507031003 | 26 | 319 | 20.9 | 25.7 | 0.00 | 0.00 | 0.00 | 80 | 1018.9 |
| 20260507030905 | 26 | 309 | 14.5 | 22.5 | 0.00 | 0.00 | 0.00 | 80 | 1018.9 |
| 20260507030702 | 26 | 295 | 6.4 | 24.1 | 0.00 | 0.00 | 0.00 | 79 | 1018.9 |
| 20260507030604 | 26 | 302 | 20.9 | 24.1 | 0.00 | 0.00 | 0.00 | 79 | 1018.9 |
| 20260507030304 | 26 | 280 | 11.3 | 24.1 | 0.00 | 0.00 | 0.00 | 79 | 1018.9 |
| 20260507030204 | 27 | 314 | 14.5 | 24.1 | 0.00 | 0.00 | 0.00 | 79 | 1018.9 |
| 20260507030106 | 27 | 316 | 19.3 | 24.1 | 0.00 | 0.00 | 0.00 | 79 | 1018.8 |
| 20260507030004 | 27 | 279 | 24.1 | 25.7 | 0.00 | 0.00 | 0.00 | 79 | 1018.8 |
| 20260507025902 | 27 | 336 | 16.1 | 25.7 | 0.00 | 0.00 | 0.00 | 79 | 1018.9 |
| 20260507025802 | 27 | 321 | 16.1 | 25.7 | 0.00 | 0.00 | 0.00 | 79 | 1018.8 |
| 20260507025402 | 27 | 328 | 20.9 | 25.7 | 0.00 | 0.00 | 0.00 | 79 | 1018.6 |
| 20260507025306 | 27 | 317 | 16.1 | 25.7 | 0.00 | 0.00 | 0.00 | 78 | 1018.8 |
| 20260507025103 | 27 | 297 | 14.5 | 24.1 | 0.00 | 0.00 | 0.00 | 79 | 1018.7 |
| 20260507024701 | 27 | 340 | 12.9 | 27.4 | 0.00 | 0.00 | 0.00 | 78 | 1018.8 |
| 20260507024609 | 27 | 296 | 14.5 | 27.4 | 0.00 | 0.00 | 0.00 | 78 | 1018.8 |
| 20260507024502 | 27 | 308 | 11.3 | 27.4 | 0.00 | 0.00 | 0.00 | 78 | 1018.7 |
| 20260507024402 | 27 | 312 | 12.9 | 27.4 | 0.00 | 0.00 | 0.00 | 78 | 1018.8 |
| 20260507024203 | 27 | 297 | 20.9 | 27.4 | 0.00 | 0.00 | 0.00 | 78 | 1018.8 |
| 20260507024103 | 27 | 305 | 17.7 | 27.4 | 0.00 | 0.00 | 0.00 | 77 | 1018.7 |
| 20260507024003 | 27 | 296 | 16.1 | 27.4 | 0.00 | 0.00 | 0.00 | 78 | 1018.8 |
| 20260507023802 | 27 | 322 | 27.4 | 27.4 | 0.00 | 0.00 | 0.00 | 77 | 1018.7 |
| 20260507023603 | 27 | 314 | 14.5 | 25.7 | 0.00 | 0.00 | 0.00 | 77 | 1018.8 |
| 20260507023502 | 27 | 286 | 11.3 | 25.7 | 0.00 | 0.00 | 0.00 | 77 | 1018.7 |
| 20260507023402 | 27 | 312 | 14.5 | 25.7 | 0.00 | 0.00 | 0.00 | 77 | 1018.6 |
| 20260507023303 | 27 | 311 | 16.1 | 25.7 | 0.00 | 0.00 | 0.00 | 77 | 1018.6 |
| 20260507023205 | 27 | 292 | 12.9 | 25.7 | 0.00 | 0.00 | 0.00 | 77 | 1018.8 |
| 20260507023003 | 27 | 327 | 24.1 | 25.7 | 0.00 | 0.00 | 0.00 | 76 | 1018.6 |
| 20260507022904 | 28 | 301 | 12.9 | 20.9 | 0.00 | 0.00 | 0.00 | 76 | 1018.6 |
| 20260507022702 | 28 | 296 | 11.3 | 20.9 | 0.00 | 0.00 | 0.00 | 75 | 1018.7 |
| 20260507022501 | 28 | 24 | 8.0 | 24.1 | 0.00 | 0.00 | 0.00 | 76 | 1018.7 |
| 20260507022306 | 27 | 348 | 14.5 | 24.1 | 0.00 | 0.00 | 0.00 | 76 | 1018.5 |
| 20260507022204 | 27 | 317 | 14.5 | 24.1 | 0.00 | 0.00 | 0.00 | 76 | 1018.7 |
| 20260507022103 | 27 | 342 | 9.7 | 24.1 | 0.00 | 0.00 | 0.00 | 76 | 1018.6 |
| 20260507022004 | 27 | 304 | 16.1 | 24.1 | 0.00 | 0.00 | 0.00 | 77 | 1018.6 |
| 20260507021802 | 27 | 326 | 14.5 | 24.1 | 0.00 | 0.00 | 0.00 | 76 | 1018.6 |
| 20260507021702 | 27 | 315 | 14.5 | 24.1 | 0.00 | 0.00 | 0.00 | 76 | 1018.7 |
| 20260507021603 | 27 | 330 | 17.7 | 22.5 | 0.00 | 0.00 | 0.00 | 76 | 1018.7 |
| 20260507021503 | 28 | 315 | 17.7 | 22.5 | 0.00 | 0.00 | 0.00 | 77 | 1018.6 |
| 20260507021404 | 27 | 316 | 16.1 | 22.5 | 0.00 | 0.00 | 0.00 | 76 | 1018.7 |
| 20260507021103 | 27 | 345 | 12.9 | 22.5 | 0.00 | 0.00 | 0.00 | 76 | 1018.7 |
| 20260507021002 | 27 | 292 | 11.3 | 22.5 | 0.00 | 0.00 | 0.00 | 76 | 1018.7 |
| 20260507020902 | 28 | 339 | 8.0 | 24.1 | 0.00 | 0.00 | 0.00 | 77 | 1018.7 |
| 20260507020802 | 27 | 308 | 12.9 | 24.1 | 0.00 | 0.00 | 0.00 | 77 | 1018.8 |
| 20260507020702 | 27 | 315 | 9.7 | 24.1 | 0.00 | 0.00 | 0.00 | 77 | 1018.8 |
| 20260507020603 | 27 | 302 | 14.5 | 24.1 | 0.00 | 0.00 | 0.00 | 77 | 1018.8 |
| 20260507020402 | 27 | 305 | 12.9 | 24.1 | 0.00 | 0.00 | 0.00 | 78 | 1018.8 |
| 20260507020302 | 27 | 323 | 16.1 | 24.1 | 0.00 | 0.00 | 0.00 | 77 | 1018.9 |
| 20260507020203 | 27 | 333 | 19.3 | 25.7 | 0.00 | 0.00 | 0.00 | 77 | 1018.8 |
| 20260507020004 | 27 | 304 | 12.9 | 27.4 | 0.00 | 0.00 | 0.00 | 77 | 1018.9 |
| 20260507015902 | 27 | 316 | 20.9 | 27.4 | 0.00 | 0.00 | 0.00 | 77 | 1018.9 |
| 20260507015802 | 27 | 300 | 14.5 | 27.4 | 0.00 | 0.00 | 0.00 | 77 | 1018.9 |
| 20260507015703 | 27 | 323 | 22.5 | 27.4 | 0.00 | 0.00 | 0.00 | 77 | 1018.9 |
| 20260507015602 | 27 | 306 | 19.3 | 27.4 | 0.00 | 0.00 | 0.00 | 77 | 1018.9 |
| 20260507015502 | 27 | 319 | 17.7 | 27.4 | 0.00 | 0.00 | 0.00 | 76 | 1018.8 |
| 20260507015402 | 27 | 279 | 19.3 | 27.4 | 0.00 | 0.00 | 0.00 | 76 | 1018.8 |
| 20260507015305 | 27 | 322 | 12.9 | 27.4 | 0.00 | 0.00 | 0.00 | 77 | 1018.8 |
| 20260507015004 | 28 | 301 | 20.9 | 25.7 | 0.00 | 0.00 | 0.00 | 76 | 1018.8 |
| 20260507014903 | 28 | 288 | 17.7 | 25.7 | 0.00 | 0.00 | 0.00 | 76 | 1018.9 |
| 20260507014804 | 28 | 323 | 9.7 | 25.7 | 0.00 | 0.00 | 0.00 | 76 | 1018.8 |
| 20260507014702 | 28 | 336 | 12.9 | 25.7 | 0.00 | 0.00 | 0.00 | 76 | 1018.9 |
| 20260507014602 | 28 | 327 | 20.9 | 25.7 | 0.00 | 0.00 | 0.00 | 76 | 1018.9 |
| 20260507014502 | 28 | 325 | 14.5 | 25.7 | 0.00 | 0.00 | 0.00 | 75 | 1018.9 |
| 20260507014402 | 28 | 283 | 19.3 | 27.4 | 0.00 | 0.00 | 0.00 | 75 | 1018.8 |
| 20260507014304 | 28 | 325 | 9.7 | 27.4 | 0.00 | 0.00 | 0.00 | 75 | 1018.8 |
| 20260507014102 | 28 | 290 | 8.0 | 27.4 | 0.00 | 0.00 | 0.00 | 76 | 1018.9 |
| 20260507014003 | 28 | 355 | 12.9 | 27.4 | 0.00 | 0.00 | 0.00 | 76 | 1018.8 |
| 20260507013904 | 28 | 331 | 14.5 | 27.4 | 0.00 | 0.00 | 0.00 | 76 | 1018.9 |
| 20260507013803 | 28 | 319 | 9.7 | 27.4 | 0.00 | 0.00 | 0.00 | 76 | 1018.9 |
| 20260507013704 | 28 | 338 | 14.5 | 27.4 | 0.00 | 0.00 | 0.00 | 77 | 1018.8 |
| 20260507013602 | 28 | 290 | 11.3 | 27.4 | 0.00 | 0.00 | 0.00 | 77 | 1018.9 |
| 20260507013502 | 28 | 331 | 17.7 | 27.4 | 0.00 | 0.00 | 0.00 | 77 | 1018.8 |
| 20260507013404 | 28 | 304 | 14.5 | 24.1 | 0.00 | 0.00 | 0.00 | 77 | 1018.8 |
| 20260507013303 | 28 | 338 | 16.1 | 25.7 | 0.00 | 0.00 | 0.00 | 77 | 1018.8 |
| 20260507013202 | 27 | 320 | 14.5 | 25.7 | 0.00 | 0.00 | 0.00 | 78 | 1018.8 |
| 20260507013003 | 27 | 304 | 16.1 | 25.7 | 0.00 | 0.00 | 0.00 | 77 | 1018.8 |
| 20260507012902 | 27 | 296 | 16.1 | 29.0 | 0.00 | 0.00 | 0.00 | 77 | 1018.8 |
| 20260507012802 | 27 | 321 | 12.9 | 29.0 | 0.00 | 0.00 | 0.00 | 77 | 1018.8 |
| 20260507012704 | 27 | 265 | 17.7 | 29.0 | 0.00 | 0.00 | 0.00 | 77 | 1018.8 |
| 20260507012504 | 27 | 278 | 14.5 | 29.0 | 0.00 | 0.00 | 0.00 | 77 | 1018.7 |
| 20260507012401 | 27 | 275 | 17.7 | 29.0 | 0.00 | 0.00 | 0.00 | 77 | 1018.7 |
| 20260507012102 | 27 | 348 | 14.5 | 29.0 | 0.00 | 0.00 | 0.00 | 77 | 1018.8 |
| 20260507011904 | 27 | 305 | 20.9 | 29.0 | 0.00 | 0.00 | 0.00 | 76 | 1018.8 |
| 20260507011802 | 28 | 306 | 25.7 | 27.4 | 0.00 | 0.00 | 0.00 | 76 | 1018.8 |
| 20260507011602 | 28 | 300 | 22.5 | 25.7 | 0.00 | 0.00 | 0.00 | 75 | 1018.9 |
| 20260507011302 | 28 | 305 | 11.3 | 25.7 | 0.00 | 0.00 | 0.00 | 75 | 1018.8 |
| 20260507011109 | 28 | 313 | 16.1 | 22.5 | 0.00 | 0.00 | 0.00 | 76 | 1018.8 |
| 20260507011005 | 28 | 317 | 12.9 | 22.5 | 0.00 | 0.00 | 0.00 | 75 | 1018.8 |
| 20260507010903 | 28 | 348 | 9.7 | 24.1 | 0.00 | 0.00 | 0.00 | 75 | 1018.8 |
| 20260507010703 | 28 | 273 | 11.3 | 24.1 | 0.00 | 0.00 | 0.00 | 76 | 1018.9 |
| 20260507010604 | 28 | 319 | 22.5 | 24.1 | 0.00 | 0.00 | 0.00 | 76 | 1018.9 |
| 20260507010503 | 28 | 302 | 12.9 | 24.1 | 0.00 | 0.00 | 0.00 | 76 | 1018.9 |
| 20260507010402 | 28 | 332 | 16.1 | 24.1 | 0.00 | 0.00 | 0.00 | 75 | 1018.9 |
| 20260507010302 | 28 | 326 | 17.7 | 24.1 | 0.00 | 0.00 | 0.00 | 74 | 1018.9 |
| 20260507010202 | 28 | 286 | 12.9 | 24.1 | 0.00 | 0.00 | 0.00 | 75 | 1018.8 |
| 20260507010105 | 28 | 302 | 8.0 | 24.1 | 0.00 | 0.00 | 0.00 | 73 | 1018.8 |
| 20260507010002 | 28 | 293 | 19.3 | 24.1 | 0.00 | 0.00 | 0.00 | 74 | 1018.8 |
| 20260507005801 | 28 | 12 | 17.7 | 24.1 | 0.00 | 0.00 | 0.00 | 72 | 1018.9 |
| 20260507005702 | 28 | 336 | 16.1 | 24.1 | 0.00 | 0.00 | 0.00 | 72 | 1018.9 |
| 20260507005602 | 28 | 327 | 14.5 | 24.1 | 0.00 | 0.00 | 0.00 | 72 | 1019.0 |
| 20260507005502 | 28 | 336 | 20.9 | 24.1 | 0.00 | 0.00 | 0.00 | 73 | 1018.9 |
| 20260507005402 | 28 | 320 | 16.1 | 24.1 | 0.00 | 0.00 | 0.00 | 73 | 1018.9 |
| 20260507005305 | 28 | 311 | 14.5 | 24.1 | 0.00 | 0.00 | 0.00 | 72 | 1018.9 |
| 20260507005204 | 28 | 311 | 16.1 | 24.1 | 0.00 | 0.00 | 0.00 | 73 | 1018.9 |
| 20260507005104 | 28 | 315 | 16.1 | 22.5 | 0.00 | 0.00 | 0.00 | 73 | 1018.9 |
| 20260507005002 | 28 | 338 | 12.9 | 22.5 | 0.00 | 0.00 | 0.00 | 72 | 1018.8 |
| 20260507004902 | 28 | 275 | 17.7 | 22.5 | 0.00 | 0.00 | 0.00 | 72 | 1018.9 |
| 20260507004804 | 28 | 323 | 17.7 | 22.5 | 0.00 | 0.00 | 0.00 | 72 | 1019.0 |
| 20260507004702 | 28 | 323 | 16.1 | 24.1 | 0.00 | 0.00 | 0.00 | 73 | 1019.0 |
| 20260507004603 | 28 | 333 | 9.7 | 24.1 | 0.00 | 0.00 | 0.00 | 72 | 1018.9 |
| 20260507004502 | 28 | 326 | 14.5 | 24.1 | 0.00 | 0.00 | 0.00 | 72 | 1019.0 |
| 20260507004402 | 28 | 306 | 14.5 | 24.1 | 0.00 | 0.00 | 0.00 | 72 | 1018.9 |
| 20260507004302 | 28 | 340 | 17.7 | 24.1 | 0.00 | 0.00 | 0.00 | 72 | 1019.0 |
| 20260507004202 | 28 | 355 | 14.5 | 24.1 | 0.00 | 0.00 | 0.00 | 72 | 1019.0 |
| 20260507004002 | 28 | 327 | 14.5 | 25.7 | 0.00 | 0.00 | 0.00 | 73 | 1019.0 |
| 20260507003904 | 28 | 306 | 16.1 | 25.7 | 0.00 | 0.00 | 0.00 | 74 | 1019.0 |
| 20260507003702 | 28 | 311 | 16.1 | 25.7 | 0.00 | 0.00 | 0.00 | 74 | 1019.0 |
| 20260507003603 | 28 | 320 | 17.7 | 25.7 | 0.00 | 0.00 | 0.00 | 74 | 1019.0 |
| 20260507003502 | 28 | 294 | 17.7 | 25.7 | 0.00 | 0.00 | 0.00 | 73 | 1019.0 |
| 20260507003402 | 28 | 293 | 14.5 | 25.7 | 0.00 | 0.00 | 0.00 | 74 | 1019.0 |
| 20260507003205 | 28 | 327 | 14.5 | 24.1 | 0.00 | 0.00 | 0.00 | 74 | 1019.0 |
| 20260507003102 | 28 | 300 | 16.1 | 24.1 | 0.00 | 0.00 | 0.00 | 73 | 1019.0 |
| 20260507002903 | 28 | 333 | 16.1 | 24.1 | 0.00 | 0.00 | 0.00 | 74 | 1019.0 |
| 20260507002803 | 28 | 294 | 17.7 | 22.5 | 0.00 | 0.00 | 0.00 | 73 | 1019.0 |
| 20260507002702 | 28 | 339 | 8.0 | 22.5 | 0.00 | 0.00 | 0.00 | 73 | 1019.0 |
| 20260507002604 | 28 | 317 | 14.5 | 24.1 | 0.00 | 0.00 | 0.00 | 72 | 1019.0 |
| 20260507002503 | 28 | 306 | 19.3 | 24.1 | 0.00 | 0.00 | 0.00 | 73 | 1019.0 |
| 20260507002403 | 28 | 311 | 14.5 | 24.1 | 0.00 | 0.00 | 0.00 | 74 | 1019.0 |
| 20260507002306 | 28 | 271 | 11.3 | 24.1 | 0.00 | 0.00 | 0.00 | 73 | 1019.0 |
| 20260507002203 | 28 | 328 | 14.5 | 24.1 | 0.00 | 0.00 | 0.00 | 73 | 1019.0 |
| 20260507002102 | 28 | 339 | 14.5 | 24.1 | 0.00 | 0.00 | 0.00 | 73 | 1019.1 |
| 20260507002003 | 28 | 333 | 19.3 | 24.1 | 0.00 | 0.00 | 0.00 | 73 | 1019.0 |
| 20260507001901 | 28 | 311 | 9.7 | 24.1 | 0.00 | 0.00 | 0.00 | 73 | 1019.0 |
| 20260507001802 | 28 | 306 | 11.3 | 24.1 | 0.00 | 0.00 | 0.00 | 74 | 1019.1 |
| 20260507001702 | 28 | 340 | 16.1 | 22.5 | 0.00 | 0.00 | 0.00 | 74 | 1019.1 |
| 20260507001602 | 28 | 294 | 16.1 | 22.5 | 0.00 | 0.00 | 0.00 | 74 | 1019.1 |
| 20260507001502 | 28 | 325 | 12.9 | 22.5 | 0.00 | 0.00 | 0.00 | 75 | 1019.1 |
| 20260507001404 | 28 | 311 | 8.0 | 22.5 | 0.00 | 0.00 | 0.00 | 74 | 1019.1 |
| 20260507001302 | 28 | 315 | 14.5 | 22.5 | 0.00 | 0.00 | 0.00 | 74 | 1019.1 |
| 20260507001202 | 28 | 290 | 12.9 | 22.5 | 0.00 | 0.00 | 0.00 | 75 | 1019.1 |
| 20260507001103 | 27 | 322 | 16.1 | 22.5 | 0.00 | 0.00 | 0.00 | 74 | 1019.1 |
| 20260507001001 | 28 | 306 | 16.1 | 22.5 | 0.00 | 0.00 | 0.00 | 75 | 1019.2 |
| 20260507000902 | 27 | 296 | 17.7 | 20.9 | 0.00 | 0.00 | 0.00 | 75 | 1019.2 |
| 20260507000703 | 27 | 318 | 14.5 | 20.9 | 0.00 | 0.00 | 0.00 | 75 | 1019.2 |
| 20260507000604 | 27 | 322 | 14.5 | 24.1 | 0.00 | 0.00 | 0.00 | 75 | 1019.4 |
| 20260507000501 | 28 | 311 | 17.7 | 24.1 | 0.00 | 0.00 | 0.00 | 74 | 1019.4 |
| 20260507000401 | 28 | 276 | 16.1 | 24.1 | 0.00 | 0.00 | 0.00 | 74 | 1019.4 |
| 20260507000303 | 28 | 325 | 19.3 | 24.1 | 0.00 | 0.00 | 0.00 | 74 | 1019.4 |
| 20260507000204 | 28 | 298 | 8.0 | 24.1 | 0.00 | 0.00 | 0.00 | 73 | 1019.4 |
| 20260507000005 | 28 | 355 | 16.1 | 24.1 | 0.00 | 0.00 | 0.00 | 72 | 1019.3 |
| 20260506235905 | 28 | 317 | 17.7 | 24.1 | 0.00 | 0.00 | 0.00 | 72 | 1019.4 |
| 20260506235704 | 28 | 311 | 9.7 | 20.9 | 0.00 | 0.00 | 0.00 | 73 | 1019.4 |
| 20260506235602 | 28 | 5 | 12.9 | 20.9 | 0.00 | 0.00 | 0.00 | 73 | 1019.4 |
| 20260506235503 | 28 | 319 | 16.1 | 22.5 | 0.00 | 0.00 | 0.00 | 74 | 1019.3 |
| 20260506235402 | 28 | 331 | 9.7 | 22.5 | 0.00 | 0.00 | 0.00 | 74 | 1019.4 |
| 20260506235102 | 28 | 311 | 9.7 | 22.5 | 0.00 | 0.00 | 0.00 | 75 | 1019.4 |
| 20260506235003 | 27 | 329 | 17.7 | 22.5 | 0.00 | 0.00 | 0.00 | 75 | 1019.4 |
| 20260506234904 | 27 | 315 | 12.9 | 22.5 | 0.00 | 0.00 | 0.00 | 76 | 1019.4 |
| 20260506234804 | 27 | 286 | 14.5 | 22.5 | 0.00 | 0.00 | 0.00 | 75 | 1019.4 |
| 20260506234703 | 27 | 298 | 17.7 | 22.5 | 0.00 | 0.00 | 0.00 | 74 | 1019.5 |
| 20260506234602 | 27 | 309 | 17.7 | 22.5 | 0.00 | 0.00 | 0.00 | 73 | 1019.5 |
| 20260506234402 | 27 | 331 | 16.1 | 22.5 | 0.00 | 0.00 | 0.00 | 74 | 1019.4 |
| 20260506234304 | 28 | 299 | 14.5 | 22.5 | 0.00 | 0.00 | 0.00 | 73 | 1019.4 |
| 20260506234201 | 28 | 307 | 17.7 | 22.5 | 0.00 | 0.00 | 0.00 | 74 | 1019.5 |
| 20260506234102 | 28 | 327 | 12.9 | 24.1 | 0.00 | 0.00 | 0.00 | 73 | 1019.4 |
| 20260506233903 | 28 | 5 | 9.7 | 24.1 | 0.00 | 0.00 | 0.00 | 73 | 1019.5 |
| 20260506233802 | 28 | 300 | 20.9 | 24.1 | 0.00 | 0.00 | 0.00 | 72 | 1019.5 |
| 20260506233703 | 28 | 299 | 16.1 | 24.1 | 0.00 | 0.00 | 0.00 | 72 | 1019.5 |
| 20260506233602 | 28 | 338 | 16.1 | 24.1 | 0.00 | 0.00 | 0.00 | 72 | 1019.5 |
| 20260506233402 | 28 | 306 | 16.1 | 24.1 | 0.00 | 0.00 | 0.00 | 72 | 1019.6 |
| 20260506233202 | 28 | 351 | 20.9 | 22.5 | 0.00 | 0.00 | 0.00 | 73 | 1019.5 |
| 20260506233005 | 28 | 311 | 16.1 | 22.5 | 0.00 | 0.00 | 0.00 | 73 | 1019.5 |
| 20260506232904 | 28 | 309 | 14.5 | 22.5 | 0.00 | 0.00 | 0.00 | 72 | 1019.6 |
| 20260506232802 | 28 | 305 | 20.9 | 22.5 | 0.00 | 0.00 | 0.00 | 72 | 1019.7 |
| 20260506232702 | 28 | 298 | 19.3 | 22.5 | 0.00 | 0.00 | 0.00 | 72 | 1019.6 |
| 20260506232503 | 28 | 280 | 14.5 | 22.5 | 0.00 | 0.00 | 0.00 | 72 | 1019.7 |
| 20260506232402 | 28 | 341 | 12.9 | 22.5 | 0.00 | 0.00 | 0.00 | 71 | 1019.7 |
| 20260506232202 | 28 | 299 | 17.7 | 22.5 | 0.00 | 0.00 | 0.00 | 71 | 1019.6 |
| 20260506232103 | 28 | 328 | 8.0 | 22.5 | 0.00 | 0.00 | 0.00 | 71 | 1019.6 |
| 20260506232003 | 28 | 318 | 17.7 | 22.5 | 0.00 | 0.00 | 0.00 | 71 | 1019.6 |
| 20260506231802 | 28 | 346 | 14.5 | 22.5 | 0.00 | 0.00 | 0.00 | 73 | 1019.6 |
| 20260506231708 | 28 | 286 | 16.1 | 20.9 | 0.00 | 0.00 | 0.00 | 72 | 1019.7 |
| 20260506231602 | 28 | 341 | 12.9 | 24.1 | 0.00 | 0.00 | 0.00 | 72 | 1019.6 |
| 20260506231502 | 28 | 331 | 14.5 | 24.1 | 0.00 | 0.00 | 0.00 | 72 | 1019.7 |
| 20260506231401 | 28 | 304 | 17.7 | 24.1 | 0.00 | 0.00 | 0.00 | 71 | 1019.7 |
| 20260506231302 | 28 | 311 | 14.5 | 24.1 | 0.00 | 0.00 | 0.00 | 72 | 1019.6 |
| 20260506231203 | 28 | 271 | 11.3 | 24.1 | 0.00 | 0.00 | 0.00 | 72 | 1019.6 |
| 20260506231108 | 28 | 338 | 14.5 | 24.1 | 0.00 | 0.00 | 0.00 | 73 | 1019.6 |
| 20260506231001 | 28 | 355 | 16.1 | 24.1 | 0.00 | 0.00 | 0.00 | 73 | 1019.6 |
| 20260506230901 | 28 | 309 | 20.9 | 24.1 | 0.00 | 0.00 | 0.00 | 74 | 1019.6 |
| 20260506230702 | 28 | 299 | 16.1 | 22.5 | 0.00 | 0.00 | 0.00 | 72 | 1019.6 |
| 20260506230501 | 28 | 338 | 16.1 | 20.9 | 0.00 | 0.00 | 0.00 | 71 | 1019.7 |
| 20260506230403 | 28 | 311 | 19.3 | 20.9 | 0.00 | 0.00 | 0.00 | 72 | 1019.6 |
| 20260506230302 | 28 | 326 | 16.1 | 20.9 | 0.00 | 0.00 | 0.00 | 73 | 1019.6 |
| 20260506230203 | 28 | 5 | 16.1 | 22.5 | 0.00 | 0.00 | 0.00 | 73 | 1019.6 |
| 20260506230002 | 28 | 355 | 8.0 | 22.5 | 0.00 | 0.00 | 0.00 | 74 | 1019.7 |
| 20260506225902 | 28 | 296 | 17.7 | 22.5 | 0.00 | 0.00 | 0.00 | 74 | 1019.7 |
| 20260506225703 | 28 | 287 | 11.3 | 22.5 | 0.00 | 0.00 | 0.00 | 74 | 1019.7 |
| 20260506225403 | 28 | 315 | 14.5 | 22.5 | 0.00 | 0.00 | 0.00 | 74 | 1019.7 |
| 20260506225305 | 28 | 299 | 19.3 | 20.9 | 0.00 | 0.00 | 0.00 | 74 | 1019.7 |
| 20260506225203 | 28 | 291 | 8.0 | 20.9 | 0.00 | 0.00 | 0.00 | 74 | 1019.7 |
| 20260506225102 | 28 | 298 | 20.9 | 24.1 | 0.00 | 0.00 | 0.00 | 74 | 1019.8 |
| 20260506225002 | 28 | 344 | 14.5 | 25.7 | 0.00 | 0.00 | 0.00 | 73 | 1019.7 |
| 20260506224902 | 28 | 336 | 17.7 | 25.7 | 0.00 | 0.00 | 0.00 | 74 | 1019.7 |
| 20260506224803 | 28 | 323 | 16.1 | 25.7 | 0.00 | 0.00 | 0.00 | 73 | 1019.8 |
| 20260506224705 | 28 | 299 | 16.1 | 25.7 | 0.00 | 0.00 | 0.00 | 73 | 1019.7 |
| 20260506224602 | 28 | 306 | 14.5 | 25.7 | 0.00 | 0.00 | 0.00 | 73 | 1019.8 |
| 20260506224502 | 28 | 302 | 17.7 | 25.7 | 0.00 | 0.00 | 0.00 | 72 | 1019.7 |
| 20260506224402 | 28 | 317 | 16.1 | 25.7 | 0.00 | 0.00 | 0.00 | 73 | 1019.8 |
| 20260506224302 | 28 | 309 | 8.0 | 25.7 | 0.00 | 0.00 | 0.00 | 72 | 1019.9 |
| 20260506224203 | 28 | 314 | 20.9 | 25.7 | 0.00 | 0.00 | 0.00 | 74 | 1019.9 |
| 20260506224101 | 28 | 323 | 8.0 | 22.5 | 0.00 | 0.00 | 0.00 | 73 | 1019.9 |
| 20260506224001 | 28 | 321 | 16.1 | 22.5 | 0.00 | 0.00 | 0.00 | 72 | 1019.8 |
| 20260506223901 | 28 | 284 | 12.9 | 22.5 | 0.00 | 0.00 | 0.00 | 72 | 1019.9 |
| 20260506223804 | 28 | 320 | 20.9 | 22.5 | 0.00 | 0.00 | 0.00 | 72 | 1019.9 |
| 20260506223703 | 28 | 298 | 16.1 | 22.5 | 0.00 | 0.00 | 0.00 | 71 | 1019.9 |
| 20260506223508 | 28 | 300 | 12.9 | 20.9 | 0.00 | 0.00 | 0.00 | 73 | 1019.9 |
| 20260506223403 | 28 | 350 | 17.7 | 20.9 | 0.00 | 0.00 | 0.00 | 73 | 1019.9 |
| 20260506223303 | 28 | 355 | 8.0 | 20.9 | 0.00 | 0.00 | 0.00 | 73 | 1019.8 |
| 20260506223201 | 28 | 304 | 14.5 | 20.9 | 0.00 | 0.00 | 0.00 | 72 | 1019.9 |
| 20260506223102 | 28 | 321 | 14.5 | 19.3 | 0.00 | 0.00 | 0.00 | 72 | 1019.9 |
| 20260506223003 | 28 | 304 | 16.1 | 19.3 | 0.00 | 0.00 | 0.00 | 73 | 1019.9 |
| 20260506222903 | 28 | 300 | 8.0 | 19.3 | 0.00 | 0.00 | 0.00 | 73 | 1019.9 |
| 20260506222802 | 28 | 314 | 14.5 | 20.9 | 0.00 | 0.00 | 0.00 | 73 | 1019.9 |
| 20260506222702 | 28 | 328 | 9.7 | 20.9 | 0.00 | 0.00 | 0.00 | 73 | 1020.0 |
| 20260506222503 | 28 | 335 | 12.9 | 20.9 | 0.00 | 0.00 | 0.00 | 73 | 1019.9 |
| 20260506222402 | 28 | 306 | 17.7 | 20.9 | 0.00 | 0.00 | 0.00 | 73 | 1019.9 |
| 20260506222202 | 28 | 302 | 12.9 | 20.9 | 0.00 | 0.00 | 0.00 | 74 | 1019.9 |
| 20260506222102 | 28 | 315 | 14.5 | 20.9 | 0.00 | 0.00 | 0.00 | 74 | 1019.9 |
| 20260506222003 | 28 | 347 | 20.9 | 20.9 | 0.00 | 0.00 | 0.00 | 73 | 1019.9 |
| 20260506221804 | 28 | 292 | 17.7 | 22.5 | 0.00 | 0.00 | 0.00 | 73 | 1019.9 |
| 20260506221703 | 28 | 296 | 11.3 | 22.5 | 0.00 | 0.00 | 0.00 | 73 | 1019.9 |
| 20260506221604 | 28 | 302 | 8.0 | 24.1 | 0.00 | 0.00 | 0.00 | 75 | 1019.9 |
| 20260506221501 | 28 | 320 | 12.9 | 24.1 | 0.00 | 0.00 | 0.00 | 74 | 1020.0 |
| 20260506221402 | 28 | 326 | 8.0 | 24.1 | 0.00 | 0.00 | 0.00 | 74 | 1020.0 |
| 20260506221302 | 28 | 320 | 19.3 | 24.1 | 0.00 | 0.00 | 0.00 | 74 | 1020.0 |
| 20260506221202 | 28 | 314 | 12.9 | 24.1 | 0.00 | 0.00 | 0.00 | 74 | 1020.0 |
| 20260506221103 | 28 | 301 | 14.5 | 24.1 | 0.00 | 0.00 | 0.00 | 74 | 1020.1 |
| 20260506221003 | 28 | 329 | 16.1 | 24.1 | 0.00 | 0.00 | 0.00 | 73 | 1020.0 |
| 20260506220904 | 28 | 331 | 17.7 | 24.1 | 0.00 | 0.00 | 0.00 | 73 | 1020.0 |
| 20260506220803 | 28 | 292 | 16.1 | 24.1 | 0.00 | 0.00 | 0.00 | 73 | 1020.1 |
| 20260506220702 | 28 | 321 | 9.7 | 24.1 | 0.00 | 0.00 | 0.00 | 74 | 1020.0 |
| 20260506220602 | 27 | 298 | 14.5 | 24.1 | 0.00 | 0.00 | 0.00 | 74 | 1020.1 |
| 20260506220502 | 27 | 311 | 12.9 | 24.1 | 0.00 | 0.00 | 0.00 | 74 | 1020.1 |
| 20260506220301 | 27 | 317 | 14.5 | 24.1 | 0.00 | 0.00 | 0.00 | 75 | 1020.2 |
| 20260506220004 | 28 | 325 | 20.9 | 24.1 | 0.00 | 0.00 | 0.00 | 74 | 1020.1 |
| 20260506215902 | 28 | 305 | 24.1 | 24.1 | 0.00 | 0.00 | 0.00 | 74 | 1020.2 |
| 20260506215702 | 28 | 338 | 16.1 | 24.1 | 0.00 | 0.00 | 0.00 | 73 | 1020.2 |
| 20260506215607 | 28 | 320 | 12.9 | 24.1 | 0.00 | 0.00 | 0.00 | 72 | 1020.2 |
| 20260506215403 | 28 | 297 | 17.7 | 20.9 | 0.00 | 0.00 | 0.00 | 74 | 1020.2 |
| 20260506215305 | 28 | 287 | 8.0 | 19.3 | 0.00 | 0.00 | 0.00 | 73 | 1020.2 |
| 20260506215203 | 28 | 323 | 19.3 | 19.3 | 0.00 | 0.00 | 0.00 | 74 | 1020.2 |
| 20260506215103 | 28 | 17 | 14.5 | 19.3 | 0.00 | 0.00 | 0.00 | 74 | 1020.2 |
| 20260506215002 | 28 | 355 | 12.9 | 19.3 | 0.00 | 0.00 | 0.00 | 74 | 1020.2 |
| 20260506214902 | 28 | 298 | 14.5 | 19.3 | 0.00 | 0.00 | 0.00 | 74 | 1020.3 |
| 20260506214803 | 28 | 5 | 9.7 | 19.3 | 0.00 | 0.00 | 0.00 | 74 | 1020.3 |
| 20260506214703 | 28 | 348 | 12.9 | 19.3 | 0.00 | 0.00 | 0.00 | 74 | 1020.2 |
| 20260506214602 | 28 | 342 | 14.5 | 19.3 | 0.00 | 0.00 | 0.00 | 73 | 1020.3 |
| 20260506214502 | 28 | 21 | 16.1 | 20.9 | 0.00 | 0.00 | 0.00 | 74 | 1020.3 |
| 20260506214402 | 28 | 341 | 8.0 | 20.9 | 0.00 | 0.00 | 0.00 | 74 | 1020.3 |
| 20260506214202 | 28 | 333 | 14.5 | 20.9 | 0.00 | 0.00 | 0.00 | 74 | 1020.3 |
| 20260506214104 | 28 | 340 | 6.4 | 20.9 | 0.00 | 0.00 | 0.00 | 75 | 1020.3 |
| 20260506214003 | 28 | 15 | 8.0 | 20.9 | 0.00 | 0.00 | 0.00 | 74 | 1020.3 |
| 20260506213804 | 28 | 294 | 12.9 | 20.9 | 0.00 | 0.00 | 0.00 | 74 | 1020.4 |
| 20260506213703 | 28 | 323 | 14.5 | 20.9 | 0.00 | 0.00 | 0.00 | 74 | 1020.3 |
| 20260506213605 | 28 | 5 | 8.0 | 17.7 | 0.00 | 0.00 | 0.00 | 74 | 1020.4 |
| 20260506213403 | 28 | 327 | 12.9 | 19.3 | 0.00 | 0.00 | 0.00 | 75 | 1020.3 |
| 20260506213303 | 28 | 19 | 11.3 | 20.9 | 0.00 | 0.00 | 0.00 | 74 | 1020.3 |
| 20260506213205 | 28 | 347 | 12.9 | 20.9 | 0.00 | 0.00 | 0.00 | 74 | 1020.4 |
| 20260506213102 | 28 | 318 | 12.9 | 20.9 | 0.00 | 0.00 | 0.00 | 74 | 1020.2 |
| 20260506213002 | 28 | 317 | 12.9 | 20.9 | 0.00 | 0.00 | 0.00 | 74 | 1020.4 |
| 20260506212902 | 28 | 355 | 9.7 | 20.9 | 0.00 | 0.00 | 0.00 | 75 | 1020.3 |
| 20260506212802 | 28 | 355 | 6.4 | 20.9 | 0.00 | 0.00 | 0.00 | 75 | 1020.4 |
| 20260506212705 | 28 | 332 | 17.7 | 20.9 | 0.00 | 0.00 | 0.00 | 74 | 1020.3 |
| 20260506212603 | 28 | 340 | 14.5 | 20.9 | 0.00 | 0.00 | 0.00 | 74 | 1020.4 |
| 20260506212504 | 28 | 329 | 12.9 | 20.9 | 0.00 | 0.00 | 0.00 | 74 | 1020.4 |
| 20260506212404 | 28 | 322 | 9.7 | 20.9 | 0.00 | 0.00 | 0.00 | 75 | 1020.4 |
| 20260506212306 | 28 | 317 | 14.5 | 20.9 | 0.00 | 0.00 | 0.00 | 75 | 1020.5 |
| 20260506212203 | 28 | 336 | 6.4 | 19.3 | 0.00 | 0.00 | 0.00 | 74 | 1020.3 |
| 20260506212102 | 28 | 9 | 6.4 | 19.3 | 0.00 | 0.00 | 0.00 | 74 | 1020.5 |
| 20260506212003 | 28 | 317 | 19.3 | 19.3 | 0.00 | 0.00 | 0.00 | 74 | 1020.4 |
| 20260506211904 | 28 | 11 | 12.9 | 19.3 | 0.00 | 0.00 | 0.00 | 74 | 1020.4 |
| 20260506211702 | 28 | 342 | 9.7 | 19.3 | 0.00 | 0.00 | 0.00 | 75 | 1020.5 |
| 20260506211502 | 28 | 329 | 8.0 | 19.3 | 0.00 | 0.00 | 0.00 | 75 | 1020.4 |
| 20260506211304 | 28 | 304 | 11.3 | 19.3 | 0.00 | 0.00 | 0.00 | 74 | 1020.5 |
| 20260506211202 | 28 | 5 | 16.1 | 19.3 | 0.00 | 0.00 | 0.00 | 74 | 1020.5 |
| 20260506210802 | 28 | 336 | 16.1 | 17.7 | 0.00 | 0.00 | 0.00 | 75 | 1020.6 |
| 20260506210701 | 27 | 9 | 11.3 | 17.7 | 0.00 | 0.00 | 0.00 | 74 | 1020.6 |
| 20260506210600 | 28 | 355 | 17.7 | 17.7 | 0.00 | 0.00 | 0.00 | 74 | 1020.6 |
| 20260506210501 | 28 | 355 | 6.4 | 17.7 | 0.00 | 0.00 | 0.00 | 74 | 1020.7 |
| 20260506210402 | 28 | 326 | 9.7 | 16.1 | 0.00 | 0.00 | 0.00 | 75 | 1020.6 |
| 20260506210303 | 28 | 290 | 11.3 | 17.7 | 0.00 | 0.00 | 0.00 | 75 | 1020.6 |
| 20260506210201 | 27 | 28 | 8.0 | 19.3 | 0.00 | 0.00 | 0.00 | 75 | 1020.6 |
| 20260506210004 | 27 | 5 | 9.7 | 19.3 | 0.00 | 0.00 | 0.00 | 75 | 1020.6 |
| 20260506205902 | 27 | 355 | 12.9 | 19.3 | 0.00 | 0.00 | 0.00 | 75 | 1020.6 |
| 20260506205808 | 27 | 355 | 9.7 | 19.3 | 0.00 | 0.00 | 0.00 | 75 | 1020.7 |
| 20260506205603 | 27 | 339 | 8.0 | 19.3 | 0.00 | 0.00 | 0.00 | 75 | 1020.6 |
| 20260506205403 | 27 | 16 | 14.5 | 19.3 | 0.00 | 0.00 | 0.00 | 75 | 1020.6 |
| 20260506205305 | 27 | 335 | 8.0 | 17.7 | 0.00 | 0.00 | 0.00 | 75 | 1020.6 |
| 20260506205102 | 28 | 338 | 9.7 | 17.7 | 0.00 | 0.00 | 0.00 | 74 | 1020.6 |
| 20260506205003 | 27 | 339 | 8.0 | 17.7 | 0.00 | 0.00 | 0.00 | 75 | 1020.5 |
| 20260506204903 | 27 | 343 | 17.7 | 19.3 | 0.00 | 0.00 | 0.00 | 75 | 1020.6 |
| 20260506204803 | 27 | 340 | 12.9 | 19.3 | 0.00 | 0.00 | 0.00 | 75 | 1020.5 |
| 20260506204501 | 27 | 297 | 12.9 | 19.3 | 0.00 | 0.00 | 0.00 | 76 | 1020.5 |
| 20260506204302 | 27 | 320 | 16.1 | 20.9 | 0.00 | 0.00 | 0.00 | 75 | 1020.5 |
| 20260506204209 | 27 | 351 | 16.1 | 20.9 | 0.00 | 0.00 | 0.00 | 74 | 1020.5 |
| 20260506204104 | 27 | 327 | 9.7 | 20.9 | 0.00 | 0.00 | 0.00 | 75 | 1020.6 |
| 20260506204002 | 27 | 325 | 16.1 | 20.9 | 0.00 | 0.00 | 0.00 | 74 | 1020.5 |
| 20260506203900 | 27 | 314 | 8.0 | 20.9 | 0.00 | 0.00 | 0.00 | 74 | 1020.5 |
| 20260506203803 | 27 | 355 | 12.9 | 20.9 | 0.00 | 0.00 | 0.00 | 75 | 1020.6 |
| 20260506203703 | 27 | 336 | 16.1 | 20.9 | 0.00 | 0.00 | 0.00 | 75 | 1020.6 |
| 20260506203603 | 27 | 355 | 16.1 | 20.9 | 0.00 | 0.00 | 0.00 | 75 | 1020.6 |
| 20260506203505 | 27 | 326 | 16.1 | 20.9 | 0.00 | 0.00 | 0.00 | 75 | 1020.6 |
| 20260506203409 | 27 | 323 | 12.9 | 19.3 | 0.00 | 0.00 | 0.00 | 75 | 1020.5 |
| 20260506203302 | 27 | 297 | 14.5 | 19.3 | 0.00 | 0.00 | 0.00 | 75 | 1020.5 |
| 20260506203202 | 27 | 14 | 6.4 | 19.3 | 0.00 | 0.00 | 0.00 | 75 | 1020.6 |
| 20260506203103 | 27 | 327 | 12.9 | 19.3 | 0.00 | 0.00 | 0.00 | 74 | 1020.5 |
| 20260506203004 | 27 | 345 | 12.9 | 19.3 | 0.00 | 0.00 | 0.00 | 74 | 1020.6 |
| 20260506202902 | 27 | 324 | 12.9 | 19.3 | 0.00 | 0.00 | 0.00 | 74 | 1020.5 |
| 20260506202805 | 28 | 327 | 19.3 | 19.3 | 0.00 | 0.00 | 0.00 | 73 | 1020.6 |
| 20260506202704 | 28 | 338 | 8.0 | 17.7 | 0.00 | 0.00 | 0.00 | 74 | 1020.6 |
| 20260506202602 | 27 | 347 | 8.0 | 17.7 | 0.00 | 0.00 | 0.00 | 74 | 1020.6 |
| 20260506202504 | 27 | 333 | 12.9 | 17.7 | 0.00 | 0.00 | 0.00 | 74 | 1020.6 |
| 20260506202404 | 27 | 338 | 14.5 | 17.7 | 0.00 | 0.00 | 0.00 | 74 | 1020.5 |
| 20260506202306 | 27 | 15 | 12.9 | 17.7 | 0.00 | 0.00 | 0.00 | 74 | 1020.5 |
| 20260506202203 | 27 | 346 | 8.0 | 17.7 | 0.00 | 0.00 | 0.00 | 74 | 1020.6 |
| 20260506202104 | 27 | 360 | 14.5 | 17.7 | 0.00 | 0.00 | 0.00 | 74 | 1020.5 |
| 20260506202003 | 27 | 26 | 9.7 | 17.7 | 0.00 | 0.00 | 0.00 | 74 | 1020.5 |
| 20260506201904 | 27 | 321 | 9.7 | 17.7 | 0.00 | 0.00 | 0.00 | 74 | 1020.5 |
| 20260506201804 | 27 | 336 | 6.4 | 17.7 | 0.00 | 0.00 | 0.00 | 75 | 1020.4 |
| 20260506201702 | 27 | 26 | 8.0 | 17.7 | 0.00 | 0.00 | 0.00 | 75 | 1020.5 |
| 20260506201603 | 27 | 318 | 14.5 | 17.7 | 0.00 | 0.00 | 0.00 | 75 | 1020.5 |
| 20260506201502 | 27 | 319 | 8.0 | 17.7 | 0.00 | 0.00 | 0.00 | 75 | 1020.5 |
| 20260506201403 | 27 | 360 | 14.5 | 17.7 | 0.00 | 0.00 | 0.00 | 75 | 1020.5 |
| 20260506201303 | 27 | 19 | 6.4 | 17.7 | 0.00 | 0.00 | 0.00 | 75 | 1020.5 |
| 20260506201204 | 27 | 290 | 8.0 | 17.7 | 0.00 | 0.00 | 0.00 | 75 | 1020.4 |
| 20260506201104 | 27 | 289 | 8.0 | 17.7 | 0.00 | 0.00 | 0.00 | 75 | 1020.4 |
| 20260506201004 | 27 | 319 | 4.8 | 16.1 | 0.00 | 0.00 | 0.00 | 75 | 1020.4 |
| 20260506200902 | 27 | 329 | 12.9 | 16.1 | 0.00 | 0.00 | 0.00 | 75 | 1020.4 |
| 20260506200802 | 27 | 290 | 12.9 | 16.1 | 0.00 | 0.00 | 0.00 | 76 | 1020.4 |
| 20260506200702 | 27 | 314 | 6.4 | 16.1 | 0.00 | 0.00 | 0.00 | 75 | 1020.4 |
| 20260506200603 | 27 | 338 | 14.5 | 16.1 | 0.00 | 0.00 | 0.00 | 76 | 1020.4 |
| 20260506200404 | 27 | 360 | 8.0 | 17.7 | 0.00 | 0.00 | 0.00 | 77 | 1020.4 |
| 20260506200202 | 27 | 305 | 11.3 | 17.7 | 0.00 | 0.00 | 0.00 | 76 | 1020.4 |
| 20260506200002 | 27 | 309 | 11.3 | 17.7 | 0.00 | 0.00 | 0.00 | 76 | 1020.5 |
| 20260506195904 | 27 | 314 | 12.9 | 17.7 | 0.00 | 0.00 | 0.00 | 76 | 1020.5 |
| 20260506195602 | 27 | 304 | 4.8 | 17.7 | 0.00 | 0.00 | 0.00 | 76 | 1020.5 |
| 20260506195502 | 27 | 337 | 9.7 | 14.5 | 0.00 | 0.00 | 0.00 | 77 | 1020.5 |
| 20260506195402 | 27 | 269 | 4.8 | 14.5 | 0.00 | 0.00 | 0.00 | 76 | 1020.5 |
| 20260506195305 | 27 | 261 | 1.6 | 14.5 | 0.00 | 0.00 | 0.00 | 76 | 1020.6 |
| 20260506195201 | 27 | 305 | 12.9 | 14.5 | 0.00 | 0.00 | 0.00 | 76 | 1020.6 |
| 20260506195103 | 27 | 280 | 11.3 | 14.5 | 0.00 | 0.00 | 0.00 | 77 | 1020.5 |
| 20260506195000 | 27 | 306 | 8.0 | 14.5 | 0.00 | 0.00 | 0.00 | 76 | 1020.5 |
| 20260506194901 | 27 | 309 | 4.8 | 14.5 | 0.00 | 0.00 | 0.00 | 76 | 1020.5 |
| 20260506194800 | 27 | 289 | 12.9 | 14.5 | 0.00 | 0.00 | 0.00 | 75 | 1020.5 |
| 20260506194701 | 27 | 272 | 3.2 | 14.5 | 0.00 | 0.00 | 0.00 | 76 | 1020.5 |
| 20260506194602 | 27 | 319 | 8.0 | 14.5 | 0.00 | 0.00 | 0.00 | 76 | 1020.5 |
| 20260506194501 | 27 | 330 | 9.7 | 14.5 | 0.00 | 0.00 | 0.00 | 75 | 1020.5 |
| 20260506194403 | 27 | 318 | 4.8 | 14.5 | 0.00 | 0.00 | 0.00 | 75 | 1020.5 |
| 20260506194202 | 27 | 39 | 9.7 | 14.5 | 0.00 | 0.00 | 0.00 | 76 | 1020.5 |
| 20260506194101 | 27 | 19 | 12.9 | 14.5 | 0.00 | 0.00 | 0.00 | 75 | 1020.5 |
| 20260506194001 | 27 | 26 | 6.4 | 14.5 | 0.00 | 0.00 | 0.00 | 75 | 1020.5 |
| 20260506193902 | 27 | 23 | 4.8 | 14.5 | 0.00 | 0.00 | 0.00 | 75 | 1020.6 |
| 20260506193802 | 27 | 17 | 12.9 | 12.9 | 0.00 | 0.00 | 0.00 | 75 | 1020.6 |
| 20260506193502 | 27 | 360 | 4.8 | 14.5 | 0.00 | 0.00 | 0.00 | 75 | 1020.6 |
| 20260506193402 | 27 | 334 | 8.0 | 14.5 | 0.00 | 0.00 | 0.00 | 76 | 1020.6 |
| 20260506193301 | 27 | 360 | 8.0 | 14.5 | 0.00 | 0.00 | 0.00 | 76 | 1020.6 |
| 20260506193100 | 27 | 313 | 8.0 | 14.5 | 0.00 | 0.00 | 0.00 | 75 | 1020.5 |
| 20260506192903 | 27 | 330 | 4.8 | 14.5 | 0.00 | 0.00 | 0.00 | 75 | 1020.6 |
| 20260506192703 | 27 | 360 | 9.7 | 14.5 | 0.00 | 0.00 | 0.00 | 75 | 1020.6 |
| 20260506192609 | 27 | 325 | 8.0 | 14.5 | 0.00 | 0.00 | 0.00 | 75 | 1020.5 |
| 20260506192501 | 27 | 9 | 8.0 | 14.5 | 0.00 | 0.00 | 0.00 | 75 | 1020.5 |
| 20260506192400 | 27 | 5 | 8.0 | 14.5 | 0.00 | 0.00 | 0.00 | 75 | 1020.5 |
| 20260506192305 | 27 | 355 | 4.8 | 14.5 | 0.00 | 0.00 | 0.00 | 75 | 1020.5 |
| 20260506192201 | 27 | 269 | 4.8 | 14.5 | 0.00 | 0.00 | 0.00 | 75 | 1020.5 |
| 20260506192101 | 27 | 333 | 8.0 | 14.5 | 0.00 | 0.00 | 0.00 | 75 | 1020.5 |
| 20260506191701 | 27 | 317 | 4.8 | 12.9 | 0.00 | 0.00 | 0.00 | 75 | 1020.5 |
| 20260506191602 | 27 | 22 | 8.0 | 12.9 | 0.00 | 0.00 | 0.00 | 75 | 1020.4 |
| 20260506191503 | 27 | 325 | 6.4 | 12.9 | 0.00 | 0.00 | 0.00 | 75 | 1020.5 |
| 20260506191403 | 27 | 5 | 8.0 | 12.9 | 0.00 | 0.00 | 0.00 | 75 | 1020.5 |
| 20260506191302 | 27 | 5 | 8.0 | 12.9 | 0.00 | 0.00 | 0.00 | 76 | 1020.4 |
| 20260506191201 | 26 | 342 | 8.0 | 12.9 | 0.00 | 0.00 | 0.00 | 75 | 1020.4 |
| 20260506191003 | 26 | 309 | 6.4 | 12.9 | 0.00 | 0.00 | 0.00 | 76 | 1020.4 |
| 20260506190902 | 26 | 349 | 4.8 | 12.9 | 0.00 | 0.00 | 0.00 | 76 | 1020.4 |
| 20260506190759 | 26 | 326 | 9.7 | 12.9 | 0.00 | 0.00 | 0.00 | 76 | 1020.4 |
| 20260506190705 | 26 | 327 | 8.0 | 12.9 | 0.00 | 0.00 | 0.00 | 76 | 1020.4 |
| 20260506190603 | 26 | 319 | 9.7 | 12.9 | 0.00 | 0.00 | 0.00 | 76 | 1020.4 |
| 20260506190303 | 26 | 347 | 6.4 | 14.5 | 0.00 | 0.00 | 0.00 | 76 | 1020.4 |
| 20260506190201 | 26 | 336 | 6.4 | 14.5 | 0.00 | 0.00 | 0.00 | 77 | 1020.4 |
| 20260506190002 | 26 | 344 | 6.4 | 14.5 | 0.00 | 0.00 | 0.00 | 76 | 1020.3 |
| 20260506185900 | 26 | 355 | 6.4 | 14.5 | 0.00 | 0.00 | 0.00 | 76 | 1020.4 |
| 20260506185702 | 26 | 5 | 4.8 | 14.5 | 0.00 | 0.00 | 0.00 | 76 | 1020.4 |
| 20260506185602 | 26 | 300 | 6.4 | 14.5 | 0.00 | 0.00 | 0.00 | 76 | 1020.4 |
| 20260506185503 | 26 | 325 | 8.0 | 14.5 | 0.00 | 0.00 | 0.00 | 76 | 1020.3 |
| 20260506185405 | 26 | 316 | 6.4 | 12.9 | 0.00 | 0.00 | 0.00 | 77 | 1020.3 |
| 20260506185306 | 26 | 310 | 8.0 | 12.9 | 0.00 | 0.00 | 0.00 | 77 | 1020.3 |
| 20260506185202 | 26 | 360 | 4.8 | 12.9 | 0.00 | 0.00 | 0.00 | 77 | 1020.3 |
| 20260506185102 | 26 | 344 | 4.8 | 12.9 | 0.00 | 0.00 | 0.00 | 77 | 1020.2 |
| 20260506185001 | 26 | 345 | 6.4 | 9.7 | 0.00 | 0.00 | 0.00 | 77 | 1020.3 |
| 20260506184802 | 26 | 325 | 1.6 | 9.7 | 0.00 | 0.00 | 0.00 | 77 | 1020.3 |
| 20260506184701 | 26 | 320 | 8.0 | 9.7 | 0.00 | 0.00 | 0.00 | 77 | 1020.3 |
| 20260506184601 | 26 | 329 | 3.2 | 9.7 | 0.00 | 0.00 | 0.00 | 77 | 1020.4 |
| 20260506184401 | 26 | 17 | 4.8 | 9.7 | 0.00 | 0.00 | 0.00 | 76 | 1020.3 |
| 20260506184201 | 26 | 360 | 8.0 | 9.7 | 0.00 | 0.00 | 0.00 | 76 | 1020.3 |
| 20260506184101 | 26 | 355 | 8.0 | 11.3 | 0.00 | 0.00 | 0.00 | 76 | 1020.2 |
| 20260506184000 | 26 | 309 | 3.2 | 11.3 | 0.00 | 0.00 | 0.00 | 76 | 1020.2 |
| 20260506183802 | 26 | 326 | 6.4 | 9.7 | 0.00 | 0.00 | 0.00 | 76 | 1020.2 |
| 20260506183701 | 26 | 307 | 4.8 | 9.7 | 0.00 | 0.00 | 0.00 | 76 | 1020.2 |
| 20260506183601 | 26 | 299 | 8.0 | 9.7 | 0.00 | 0.00 | 0.00 | 76 | 1020.3 |
| 20260506183501 | 26 | 317 | 3.2 | 9.7 | 0.00 | 0.00 | 0.00 | 76 | 1020.2 |
| 20260506183402 | 26 | 332 | 4.8 | 9.7 | 0.00 | 0.00 | 0.00 | 76 | 1020.2 |
| 20260506183302 | 26 | 329 | 9.7 | 9.7 | 0.00 | 0.00 | 0.00 | 76 | 1020.2 |
| 20260506183101 | 26 | 313 | 3.2 | 11.3 | 0.00 | 0.00 | 0.00 | 77 | 1020.2 |
| 20260506183002 | 26 | 312 | 6.4 | 12.9 | 0.00 | 0.00 | 0.00 | 77 | 1020.2 |
| 20260506182803 | 26 | 290 | 4.8 | 12.9 | 0.00 | 0.00 | 0.00 | 77 | 1020.2 |
| 20260506182701 | 25 | 301 | 6.4 | 12.9 | 0.00 | 0.00 | 0.00 | 77 | 1020.2 |
| 20260506182601 | 25 | 355 | 1.6 | 12.9 | 0.00 | 0.00 | 0.00 | 77 | 1020.1 |
| 20260506182503 | 25 | 302 | 4.8 | 12.9 | 0.00 | 0.00 | 0.00 | 77 | 1020.1 |
| 20260506182401 | 25 | 299 | 3.2 | 12.9 | 0.00 | 0.00 | 0.00 | 76 | 1020.1 |
| 20260506182203 | 26 | 306 | 8.0 | 12.9 | 0.00 | 0.00 | 0.00 | 76 | 1020.1 |
| 20260506182003 | 26 | 283 | 4.8 | 6.4 | 0.00 | 0.00 | 0.00 | 76 | 1020.1 |
| 20260506181900 | 26 | 328 | 4.8 | 6.4 | 0.00 | 0.00 | 0.00 | 76 | 1020.1 |
| 20260506181801 | 25 | 346 | 6.4 | 6.4 | 0.00 | 0.00 | 0.00 | 75 | 1020.1 |
| 20260506181601 | 26 | 298 | 3.2 | 6.4 | 0.00 | 0.00 | 0.00 | 75 | 1020.1 |
| 20260506181503 | 26 | 312 | 4.8 | 6.4 | 0.00 | 0.00 | 0.00 | 74 | 1020.0 |
| 20260506181402 | 26 | 20 | 4.8 | 8.0 | 0.00 | 0.00 | 0.00 | 74 | 1020.0 |
| 20260506181301 | 26 | 37 | 3.2 | 8.0 | 0.00 | 0.00 | 0.00 | 75 | 1020.0 |
| 20260506181203 | 26 | 25 | 4.8 | 8.0 | 0.00 | 0.00 | 0.00 | 75 | 1020.0 |
| 20260506181102 | 26 | 299 | 4.8 | 8.0 | 0.00 | 0.00 | 0.00 | 75 | 1020.0 |
| 20260506180902 | 25 | 9 | 3.2 | 8.0 | 0.00 | 0.00 | 0.00 | 75 | 1019.9 |
| 20260506180803 | 25 | 16 | 4.8 | 8.0 | 0.00 | 0.00 | 0.00 | 75 | 1019.9 |
| 20260506180701 | 25 | 327 | 4.8 | 8.0 | 0.00 | 0.00 | 0.00 | 75 | 1020.0 |
| 20260506180502 | 25 | 337 | 4.8 | 8.0 | 0.00 | 0.00 | 0.00 | 75 | 1019.9 |
| 20260506180402 | 25 | 341 | 3.2 | 8.0 | 0.00 | 0.00 | 0.00 | 75 | 1019.9 |
| 20260506180203 | 25 | 355 | 6.4 | 8.0 | 0.00 | 0.00 | 0.00 | 75 | 1019.9 |
| 20260506180101 | 25 | 342 | 1.6 | 8.0 | 0.00 | 0.00 | 0.00 | 75 | 1019.9 |
| 20260506175900 | 25 | 355 | 4.8 | 8.0 | 0.00 | 0.00 | 0.00 | 75 | 1019.9 |
| 20260506175801 | 25 | 344 | 6.4 | 8.0 | 0.00 | 0.00 | 0.00 | 75 | 1019.8 |
| 20260506175704 | 25 | 299 | 4.8 | 8.0 | 0.00 | 0.00 | 0.00 | 74 | 1019.9 |
| 20260506175603 | 25 | 320 | 1.6 | 8.0 | 0.00 | 0.00 | 0.00 | 75 | 1019.9 |
| 20260506175503 | 25 | 317 | 6.4 | 8.0 | 0.00 | 0.00 | 0.00 | 75 | 1019.9 |
| 20260506175306 | 25 | 5 | 4.8 | 6.4 | 0.00 | 0.00 | 0.00 | 75 | 1019.9 |
| 20260506175103 | 25 | 139 | 1.6 | 3.2 | 0.00 | 0.00 | 0.00 | 76 | 1019.9 |
| 20260506175000 | 25 | 139 | 0.0 | 3.2 | 0.00 | 0.00 | 0.00 | 76 | 1019.9 |
| 20260506174902 | 25 | 139 | 0.0 | 3.2 | 0.00 | 0.00 | 0.00 | 76 | 1019.9 |
| 20260506174802 | 24 | 139 | 1.6 | 3.2 | 0.00 | 0.00 | 0.00 | 76 | 1019.8 |
| 20260506174705 | 24 | 139 | 1.6 | 3.2 | 0.00 | 0.00 | 0.00 | 77 | 1019.9 |
| 20260506174602 | 24 | 139 | 0.0 | 1.6 | 0.00 | 0.00 | 0.00 | 77 | 1019.9 |
| 20260506174502 | 24 | 139 | 0.0 | 1.6 | 0.00 | 0.00 | 0.00 | 78 | 1019.9 |
| 20260506174402 | 24 | 139 | 0.0 | 1.6 | 0.00 | 0.00 | 0.00 | 78 | 1019.8 |
| 20260506174304 | 24 | 139 | 0.0 | 1.6 | 0.00 | 0.00 | 0.00 | 78 | 1019.9 |
| 20260506174202 | 23 | 139 | 1.6 | 1.6 | 0.00 | 0.00 | 0.00 | 77 | 1019.7 |
| 20260506174102 | 23 | 139 | 0.0 | 1.6 | 0.00 | 0.00 | 0.00 | 78 | 1019.8 |
| 20260506174002 | 23 | 139 | 0.0 | 1.6 | 0.00 | 0.00 | 0.00 | 79 | 1019.7 |
| 20260506173903 | 23 | 139 | 0.0 | 1.6 | 0.00 | 0.00 | 0.00 | 79 | 1019.7 |
| 20260506173802 | 23 | 139 | 0.0 | 4.8 | 0.00 | 0.00 | 0.00 | 79 | 1019.7 |
| 20260506173701 | 23 | 139 | 0.0 | 4.8 | 0.00 | 0.00 | 0.00 | 79 | 1019.7 |
| 20260506173502 | 23 | 139 | 0.0 | 4.8 | 0.00 | 0.00 | 0.00 | 81 | 1019.6 |
| 20260506173303 | 23 | 139 | 0.0 | 4.8 | 0.00 | 0.00 | 0.00 | 81 | 1019.6 |
| 20260506173208 | 23 | 139 | 0.0 | 4.8 | 0.00 | 0.00 | 0.00 | 81 | 1019.6 |
| 20260506173102 | 23 | 139 | 0.0 | 4.8 | 0.00 | 0.00 | 0.00 | 81 | 1019.6 |
| 20260506173003 | 23 | 139 | 0.0 | 4.8 | 0.00 | 0.00 | 0.00 | 82 | 1019.6 |
| 20260506172901 | 23 | 139 | 0.0 | 4.8 | 0.00 | 0.00 | 0.00 | 82 | 1019.7 |
| 20260506172802 | 22 | 139 | 4.8 | 4.8 | 0.00 | 0.00 | 0.00 | 82 | 1019.6 |
| 20260506172602 | 22 | 139 | 3.2 | 3.2 | 0.00 | 0.00 | 0.00 | 83 | 1019.6 |
| 20260506172501 | 22 | 139 | 3.2 | 3.2 | 0.00 | 0.00 | 0.00 | 83 | 1019.7 |
| 20260506172400 | 22 | 139 | 1.6 | 3.2 | 0.00 | 0.00 | 0.00 | 83 | 1019.6 |
| 20260506172202 | 22 | 139 | 0.0 | 0.0 | 0.00 | 0.00 | 0.00 | 84 | 1019.7 |
| 20260506172102 | 22 | 139 | 0.0 | 0.0 | 0.00 | 0.00 | 0.00 | 84 | 1019.6 |
| 20260506172001 | 22 | 139 | 0.0 | 0.0 | 0.00 | 0.00 | 0.00 | 85 | 1019.6 |
| 20260506171902 | 22 | 139 | 0.0 | 0.0 | 0.00 | 0.00 | 0.00 | 85 | 1019.6 |
| 20260506171802 | 22 | 139 | 0.0 | 0.0 | 0.00 | 0.00 | 0.00 | 84 | 1019.6 |
| 20260506171702 | 22 | 139 | 0.0 | 0.0 | 0.00 | 0.00 | 0.00 | 85 | 1019.6 |
| 20260506171602 | 21 | 139 | 0.0 | 0.0 | 0.00 | 0.00 | 0.00 | 86 | 1019.6 |
| 20260506171502 | 21 | 139 | 0.0 | 0.0 | 0.00 | 0.00 | 0.00 | 86 | 1019.5 |
| 20260506171401 | 21 | 139 | 0.0 | 0.0 | 0.00 | 0.00 | 0.00 | 86 | 1019.5 |
| 20260506171300 | 21 | 139 | 0.0 | 0.0 | 0.00 | 0.00 | 0.00 | 87 | 1019.5 |
| 20260506171209 | 21 | 139 | 0.0 | 0.0 | 0.00 | 0.00 | 0.00 | 87 | 1019.5 |
| 20260506171001 | 21 | 139 | 0.0 | 0.0 | 0.00 | 0.00 | 0.00 | 88 | 1019.5 |
| 20260506170802 | 21 | 139 | 0.0 | 0.0 | 0.00 | 0.00 | 0.00 | 89 | 1019.4 |
| 20260506170702 | 20 | 139 | 0.0 | 0.0 | 0.00 | 0.00 | 0.00 | 89 | 1019.4 |
| 20260506170503 | 20 | 139 | 0.0 | 0.0 | 0.00 | 0.00 | 0.00 | 89 | 1019.4 |
| 20260506170400 | 20 | 139 | 0.0 | 0.0 | 0.00 | 0.00 | 0.00 | 89 | 1019.3 |
| 20260506170307 | 20 | 139 | 0.0 | 0.0 | 0.00 | 0.00 | 0.00 | 88 | 1019.5 |
| 20260506170201 | 20 | 139 | 0.0 | 0.0 | 0.00 | 0.00 | 0.00 | 88 | 1019.4 |
| 20260506165902 | 20 | 139 | 0.0 | 0.0 | 0.00 | 0.00 | 0.00 | 89 | 1019.4 |
| 20260506165804 | 20 | 139 | 0.0 | 0.0 | 0.00 | 0.00 | 0.00 | 89 | 1019.3 |
| 20260506165701 | 20 | 139 | 0.0 | 0.0 | 0.00 | 0.00 | 0.00 | 88 | 1019.2 |
| 20260506165502 | 20 | 139 | 0.0 | 0.0 | 0.00 | 0.00 | 0.00 | 88 | 1019.2 |
| 20260506165400 | 20 | 139 | 0.0 | 0.0 | 0.00 | 0.00 | 0.00 | 88 | 1019.2 |
| 20260506165203 | 20 | 139 | 0.0 | 0.0 | 0.00 | 0.00 | 0.00 | 88 | 1019.2 |
| 20260506165101 | 20 | 139 | 0.0 | 0.0 | 0.00 | 0.00 | 0.00 | 88 | 1019.2 |
| 20260506165001 | 20 | 139 | 0.0 | 0.0 | 0.00 | 0.00 | 0.00 | 88 | 1019.2 |
| 20260506164903 | 20 | 139 | 0.0 | 0.0 | 0.00 | 0.00 | 0.00 | 88 | 1019.2 |
| 20260506164801 | 20 | 139 | 0.0 | 0.0 | 0.00 | 0.00 | 0.00 | 88 | 1019.2 |
| 20260506164602 | 20 | 139 | 0.0 | 0.0 | 0.00 | 0.00 | 0.00 | 88 | 1019.2 |
| 20260506164502 | 20 | 139 | 0.0 | 0.0 | 0.00 | 0.00 | 0.00 | 88 | 1019.1 |
| 20260506164302 | 20 | 139 | 0.0 | 0.0 | 0.00 | 0.00 | 0.00 | 88 | 1019.1 |
| 20260506164201 | 20 | 139 | 0.0 | 0.0 | 0.00 | 0.00 | 0.00 | 88 | 1019.1 |
| 20260506164101 | 20 | 139 | 0.0 | 0.0 | 0.00 | 0.00 | 0.00 | 88 | 1019.1 |
| 20260506164003 | 20 | 139 | 0.0 | 1.6 | 0.00 | 0.00 | 0.00 | 88 | 1019.0 |
| 20260506163901 | 20 | 139 | 0.0 | 1.6 | 0.00 | 0.00 | 0.00 | 88 | 1019.1 |
| 20260506163801 | 19 | 139 | 0.0 | 1.6 | 0.00 | 0.00 | 0.00 | 88 | 1019.1 |
| 20260506163703 | 19 | 139 | 0.0 | 1.6 | 0.00 | 0.00 | 0.00 | 88 | 1019.1 |
| 20260506163602 | 19 | 139 | 0.0 | 1.6 | 0.00 | 0.00 | 0.00 | 88 | 1019.0 |
| 20260506163501 | 19 | 139 | 0.0 | 1.6 | 0.00 | 0.00 | 0.00 | 88 | 1019.1 |
| 20260506163304 | 19 | 139 | 0.0 | 1.6 | 0.00 | 0.00 | 0.00 | 88 | 1019.0 |
| 20260506163201 | 19 | 139 | 0.0 | 1.6 | 0.00 | 0.00 | 0.00 | 88 | 1019.0 |
| 20260506163101 | 19 | 139 | 0.0 | 1.6 | 0.00 | 0.00 | 0.00 | 88 | 1019.0 |
| 20260506163001 | 19 | 139 | 0.0 | 1.6 | 0.00 | 0.00 | 0.00 | 88 | 1019.0 |
| 20260506162902 | 19 | 139 | 0.0 | 1.6 | 0.00 | 0.00 | 0.00 | 88 | 1018.9 |
| 20260506162701 | 19 | 139 | 0.0 | 1.6 | 0.00 | 0.00 | 0.00 | 88 | 1018.9 |
| 20260506162602 | 19 | 139 | 0.0 | 1.6 | 0.00 | 0.00 | 0.00 | 88 | 1018.9 |
| 20260506162301 | 19 | 139 | 0.0 | 3.2 | 0.00 | 0.00 | 0.00 | 88 | 1018.9 |
| 20260506162201 | 19 | 139 | 0.0 | 4.8 | 0.00 | 0.00 | 0.00 | 88 | 1018.8 |
| 20260506162102 | 19 | 139 | 0.0 | 6.4 | 0.00 | 0.00 | 0.00 | 88 | 1018.8 |
| 20260506162002 | 19 | 139 | 0.0 | 6.4 | 0.00 | 0.00 | 0.00 | 88 | 1018.8 |
| 20260506161759 | 19 | 139 | 0.0 | 6.4 | 0.00 | 0.00 | 0.00 | 88 | 1018.7 |
| 20260506161709 | 19 | 139 | 0.0 | 6.4 | 0.00 | 0.00 | 0.00 | 88 | 1018.6 |
| 20260506161602 | 19 | 139 | 1.6 | 6.4 | 0.00 | 0.00 | 0.00 | 88 | 1018.8 |
| 20260506161501 | 19 | 139 | 1.6 | 6.4 | 0.00 | 0.00 | 0.00 | 88 | 1018.7 |
| 20260506161408 | 19 | 139 | 4.8 | 6.4 | 0.00 | 0.00 | 0.00 | 88 | 1018.7 |
| 20260506161202 | 19 | 139 | 3.2 | 6.4 | 0.00 | 0.00 | 0.00 | 88 | 1018.7 |
| 20260506161104 | 19 | 139 | 4.8 | 6.4 | 0.00 | 0.00 | 0.00 | 88 | 1018.8 |
| 20260506160902 | 19 | 139 | 0.0 | 3.2 | 0.00 | 0.00 | 0.00 | 88 | 1018.8 |
| 20260506160801 | 19 | 135 | 1.6 | 1.6 | 0.00 | 0.00 | 0.00 | 88 | 1018.8 |
| 20260506160700 | 19 | 135 | 1.6 | 1.6 | 0.00 | 0.00 | 0.00 | 88 | 1018.9 |
| 20260506160602 | 19 | 135 | 0.0 | 1.6 | 0.00 | 0.00 | 0.00 | 88 | 1018.9 |
| 20260506160501 | 19 | 135 | 0.0 | 1.6 | 0.00 | 0.00 | 0.00 | 88 | 1018.9 |
| 20260506160401 | 19 | 135 | 0.0 | 1.6 | 0.00 | 0.00 | 0.00 | 88 | 1018.9 |
| 20260506160302 | 19 | 135 | 0.0 | 1.6 | 0.00 | 0.00 | 0.00 | 88 | 1018.8 |
| 20260506160002 | 19 | 135 | 0.0 | 3.2 | 0.00 | 0.00 | 0.00 | 88 | 1018.7 |
| 20260506155901 | 19 | 135 | 0.0 | 3.2 | 0.00 | 0.00 | 0.00 | 88 | 1018.7 |
| 20260506155801 | 19 | 135 | 0.0 | 3.2 | 0.00 | 0.00 | 0.00 | 88 | 1018.7 |
| 20260506155703 | 19 | 135 | 0.0 | 3.2 | 0.00 | 0.00 | 0.00 | 88 | 1018.8 |
| 20260506155601 | 19 | 135 | 0.0 | 3.2 | 0.00 | 0.00 | 0.00 | 88 | 1018.7 |
| 20260506155501 | 19 | 135 | 0.0 | 3.2 | 0.00 | 0.00 | 0.00 | 88 | 1018.8 |
| 20260506155402 | 19 | 135 | 0.0 | 3.2 | 0.00 | 0.00 | 0.00 | 88 | 1018.7 |
| 20260506155305 | 19 | 135 | 1.6 | 3.2 | 0.00 | 0.00 | 0.00 | 88 | 1018.6 |
| 20260506155205 | 19 | 135 | 0.0 | 1.6 | 0.00 | 0.00 | 0.00 | 88 | 1018.7 |
| 20260506155102 | 19 | 135 | 0.0 | 1.6 | 0.00 | 0.00 | 0.00 | 88 | 1018.7 |
| 20260506155004 | 19 | 135 | 0.0 | 1.6 | 0.00 | 0.00 | 0.00 | 88 | 1018.6 |
| 20260506154901 | 19 | 135 | 0.0 | 1.6 | 0.00 | 0.00 | 0.00 | 88 | 1018.6 |
| 20260506154800 | 19 | 135 | 0.0 | 1.6 | 0.00 | 0.00 | 0.00 | 88 | 1018.7 |
| 20260506154701 | 19 | 135 | 0.0 | 1.6 | 0.00 | 0.00 | 0.00 | 88 | 1018.6 |
| 20260506154601 | 19 | 135 | 0.0 | 1.6 | 0.00 | 0.00 | 0.00 | 88 | 1018.7 |
| 20260506154500 | 19 | 135 | 0.0 | 1.6 | 0.00 | 0.00 | 0.00 | 88 | 1018.6 |
| 20260506154205 | 19 | 135 | 0.0 | 1.6 | 0.00 | 0.00 | 0.00 | 88 | 1018.8 |
| 20260506154003 | 19 | 135 | 0.0 | 1.6 | 0.00 | 0.00 | 0.00 | 88 | 1018.7 |
| 20260506153901 | 19 | 135 | 0.0 | 1.6 | 0.00 | 0.00 | 0.00 | 87 | 1018.7 |
| 20260506153802 | 19 | 135 | 0.0 | 1.6 | 0.00 | 0.00 | 0.00 | 87 | 1018.8 |
| 20260506153701 | 19 | 135 | 0.0 | 1.6 | 0.00 | 0.00 | 0.00 | 88 | 1018.7 |
| 20260506153603 | 19 | 135 | 0.0 | 1.6 | 0.00 | 0.00 | 0.00 | 87 | 1018.7 |
| 20260506153502 | 19 | 135 | 0.0 | 1.6 | 0.00 | 0.00 | 0.00 | 87 | 1018.7 |
| 20260506153401 | 19 | 135 | 0.0 | 1.6 | 0.00 | 0.00 | 0.00 | 87 | 1018.6 |
| 20260506153303 | 19 | 135 | 0.0 | 1.6 | 0.00 | 0.00 | 0.00 | 87 | 1018.6 |
| 20260506153200 | 19 | 135 | 0.0 | 0.0 | 0.00 | 0.00 | 0.00 | 87 | 1018.6 |
| 20260506153101 | 19 | 135 | 0.0 | 1.6 | 0.00 | 0.00 | 0.00 | 87 | 1018.5 |
| 20260506153003 | 19 | 135 | 0.0 | 1.6 | 0.00 | 0.00 | 0.00 | 87 | 1018.5 |
| 20260506152802 | 19 | 135 | 0.0 | 1.6 | 0.00 | 0.00 | 0.00 | 87 | 1018.5 |
| 20260506152701 | 19 | 135 | 0.0 | 1.6 | 0.00 | 0.00 | 0.00 | 87 | 1018.5 |
| 20260506152602 | 19 | 135 | 0.0 | 1.6 | 0.00 | 0.00 | 0.00 | 87 | 1018.5 |
| 20260506152502 | 19 | 135 | 0.0 | 1.6 | 0.00 | 0.00 | 0.00 | 87 | 1018.6 |
| 20260506152401 | 19 | 135 | 0.0 | 1.6 | 0.00 | 0.00 | 0.00 | 87 | 1018.5 |
| 20260506152305 | 19 | 135 | 0.0 | 1.6 | 0.00 | 0.00 | 0.00 | 87 | 1018.5 |
| 20260506152201 | 19 | 135 | 0.0 | 1.6 | 0.00 | 0.00 | 0.00 | 87 | 1018.6 |
| 20260506152102 | 19 | 135 | 0.0 | 1.6 | 0.00 | 0.00 | 0.00 | 87 | 1018.5 |
| 20260506152000 | 20 | 135 | 0.0 | 1.6 | 0.00 | 0.00 | 0.00 | 88 | 1018.5 |
| 20260506151902 | 19 | 135 | 0.0 | 1.6 | 0.00 | 0.00 | 0.00 | 87 | 1018.5 |
| 20260506151802 | 20 | 135 | 0.0 | 1.6 | 0.00 | 0.00 | 0.00 | 88 | 1018.6 |
| 20260506151709 | 20 | 135 | 0.0 | 1.6 | 0.00 | 0.00 | 0.00 | 88 | 1018.5 |
| 20260506151605 | 20 | 135 | 0.0 | 1.6 | 0.00 | 0.00 | 0.00 | 88 | 1018.6 |
| 20260506151500 | 20 | 135 | 0.0 | 1.6 | 0.00 | 0.00 | 0.00 | 88 | 1018.6 |
| 20260506151401 | 20 | 135 | 0.0 | 1.6 | 0.00 | 0.00 | 0.00 | 88 | 1018.6 |
| 20260506151259 | 20 | 135 | 0.0 | 1.6 | 0.00 | 0.00 | 0.00 | 88 | 1018.5 |
| 20260506151203 | 20 | 135 | 0.0 | 1.6 | 0.00 | 0.00 | 0.00 | 88 | 1018.5 |
| 20260506151001 | 20 | 135 | 0.0 | 1.6 | 0.00 | 0.00 | 0.00 | 88 | 1018.5 |
| 20260506150903 | 20 | 135 | 1.6 | 1.6 | 0.00 | 0.00 | 0.00 | 88 | 1018.4 |
| 20260506150603 | 20 | 135 | 0.0 | 1.6 | 0.00 | 0.00 | 0.00 | 88 | 1018.3 |
| 20260506150501 | 20 | 135 | 0.0 | 1.6 | 0.00 | 0.00 | 0.00 | 88 | 1018.3 |
| 20260506150402 | 20 | 135 | 0.0 | 1.6 | 0.00 | 0.00 | 0.00 | 87 | 1018.4 |
| 20260506150307 | 20 | 135 | 0.0 | 1.6 | 0.00 | 0.00 | 0.00 | 87 | 1018.3 |
| 20260506150202 | 20 | 135 | 0.0 | 0.0 | 0.00 | 0.00 | 0.00 | 87 | 1018.3 |
| 20260506150101 | 20 | 135 | 0.0 | 0.0 | 0.00 | 0.00 | 0.00 | 87 | 1018.3 |
| 20260506145903 | 20 | 135 | 0.0 | 0.0 | 0.00 | 0.00 | 0.00 | 88 | 1018.2 |
| 20260506145808 | 20 | 135 | 0.0 | 0.0 | 0.00 | 0.00 | 0.00 | 87 | 1018.2 |
| 20260506145701 | 20 | 135 | 0.0 | 1.6 | 0.00 | 0.00 | 0.00 | 87 | 1018.2 |
| 20260506145503 | 20 | 135 | 0.0 | 1.6 | 0.00 | 0.00 | 0.00 | 87 | 1018.2 |